[{"header": {"dx": 0.06612293990616946, "dy": 0.0552356325346848, "nx": 98, "ny": 59, "la1": 35.046912555036876, "la2": 31.78801023549047, "lo1": -121.43107172385933, "lo2": -114.95102361305473, "refTime": "2026041012", "parameterCategory": 1, "parameterNumber": 2}, "data": [2.43, -0.0, -0.0, -0.0, -0.0, -0.0, -2.89, -2.89, -2.89, -0.0, -0.0, -0.0, -0.0, -0.0, -0.0, -7.59, -10.73, -10.73, -10.73, -7.27, -0.0, 2.97, 4.0, 5.36, 5.36, 7.51, 7.51, 6.64, 5.36, 3.32, 2.28, -0.0, -7.6, -6.36, -6.0, -4.43, -0.0, 3.2, -0.0, -0.0, -6.01, 9.83, 8.22, 10.79, 11.44, 13.68, 14.95, 16.48, 16.69, 15.97, 11.6, 8.53, 8.53, 9.42, 9.76, 9.76, 10.02, 10.59, 10.59, 11.5, 11.99, 11.72, 10.99, 10.55, 10.79, 10.91, 11.75, 12.39, 12.79, 12.63, 12.96, 11.96, 11.56, 11.61, 11.87, 12.04, 12.27, 13.41, -12.39, -11.2, -9.55, -9.13, -8.05, -6.32, -4.96, 0.0, 2.69, 6.01, 7.28, 8.3, 10.55, 10.28, 10.29, 10.29, 10.29, 10.66, 9.65, 8.82, 2.35, -0.0, -0.0, -0.0, -0.0, -0.0, -2.98, -2.98, -3.58, -0.0, -0.0, -0.0, -0.0, -0.0, -0.0, 11.18, -10.28, -11.62, -10.28, -8.8, -4.6, -0.0, 2.97, 4.96, 5.69, 6.79, 7.15, 7.15, 6.32, 4.0, 1.95, 2.69, -0.0, -6.26, -6.26, -7.15, -0.0, -0.0, -0.0, -0.0, 9.83, 0.0, 7.19, 7.93, 11.7, 13.36, 16.11, 15.62, 16.76, 12.45, 8.22, 8.22, 8.75, 9.17, 9.36, 9.76, 10.59, 10.99, 11.5, 11.5, 11.99, 11.6, 10.99, 10.55, 9.96, 9.84, 11.16, 11.5, 11.99, 12.21, 12.72, 11.96, 12.42, 12.86, 12.79, 12.58, 12.39, 13.41, -12.39, -11.2, -9.55, -9.13, -8.05, -6.32, -4.96, 0.0, 2.69, 6.01, 7.28, 8.3, 10.55, 10.28, 10.29, 10.29, 10.29, 10.66, 9.65, 8.82, 2.81, -0.0, -0.0, -0.0, -0.0, -0.0, -2.98, -3.69, -3.69, -0.0, -0.0, -0.0, -0.0, -0.0, 10.73, 10.73, 11.18, -11.18, -11.18, -11.18, -9.33, -7.59, -0.0, 3.25, 6.32, 6.01, 6.32, 7.15, 7.44, 2.83, -0.0, 1.4, 3.2, 5.37, 6.0, 8.49, 8.05, 8.94, 9.39, 10.28, 0.0, 2.72, 7.98, 9.92, 12.08, 13.25, 17.47, 18.33, 11.5, 7.59, 8.49, 9.3, 9.66, 10.01, 9.42, 10.73, 11.16, 11.5, 11.5, 12.21, 11.99, 11.33, 10.55, 9.17, 9.17, 9.17, 10.23, 10.94, 11.2, 11.92, 12.45, 13.32, 13.23, 13.41, 12.96, 12.52, 12.52, 14.3, -9.8, -12.45, -9.55, -8.4, -6.32, -6.32, -6.32, -2.17, 1.95, 4.71, 7.28, 9.65, 11.88, 11.64, 10.24, 10.24, 9.66, 9.81, 9.13, 8.58, 3.47, -0.0, -0.0, -0.0, -0.0, -0.0, -0.0, -3.69, -3.58, -4.38, -0.0, -0.0, -0.0, -0.0, 11.18, 11.18, 11.62, 12.07, -12.07, -11.18, -10.6, -10.28, -7.9, -0.0, 5.95, 6.95, 6.01, 7.15, 7.44, 3.8, -0.0, -0.0, -0.0, 6.32, 8.0, 9.21, 9.83, 11.18, 9.67, 7.44, 9.66, 7.4, 8.6, 10.65, 12.33, 15.36, 14.9, 8.73, 7.27, 9.09, 9.86, 10.19, 10.87, 9.62, 8.85, 9.84, 10.79, 11.99, 11.99, 12.6, 12.04, 11.6, 8.01, 6.94, 6.63, 8.24, 9.69, 10.01, 10.91, 12.08, 13.52, 14.08, 14.58, 12.96, 11.45, 10.8, 11.78, 13.15, -8.68, -11.5, -9.33, -8.8, -7.15, -6.52, -6.7, -6.32, 0.0, 5.31, 7.02, 11.28, 12.89, 11.9, 10.24, 9.52, 10.18, 9.83, 9.32, 8.73, 3.47, -0.0, -0.0, -0.0, -0.0, -0.0, -0.0, -3.69, -4.66, -0.0, -0.0, -0.0, -0.0, -0.0, 10.73, 11.62, 11.62, 12.07, 12.07, -12.07, -12.52, -10.73, -0.0, -0.0, 3.39, 6.2, 6.95, 6.64, 8.4, 6.01, -0.0, -3.11, -0.0, 8.22, 10.84, 11.18, 11.18, 12.96, 13.42, 12.96, 12.01, 12.33, 13.03, 13.15, 12.96, 11.21, 8.93, 9.09, 9.46, 9.82, 10.41, 10.41, 10.41, 10.41, 10.19, 10.99, 11.33, 11.99, 12.6, 12.6, 12.3, 9.17, 4.93, 5.4, 6.08, 7.68, 8.85, 8.85, 9.92, 12.03, 13.75, 15.27, 15.44, 15.12, 11.62, 6.98, 8.22, 9.3, 0.0, -11.53, -8.54, -7.51, -6.79, -7.07, -6.18, -3.8, 4.0, 6.95, 10.24, 11.82, 11.87, 10.58, 9.16, 10.73, 2.97, 9.21, 8.9, 9.11, 4.52, -0.0, -0.0, -0.0, -0.0, -0.0, -0.0, -4.66, -4.66, -0.0, -0.0, -0.0, -0.0, 10.73, 11.18, 11.18, 11.62, 12.07, 0.0, 0.0, -8.85, -12.07, 13.41, 9.17, 8.53, 8.53, 9.67, 10.0, 9.6, 9.6, 6.64, -0.0, -0.0, 12.07, 13.41, 13.41, 12.96, 13.86, 17.2, 11.27, 7.2, 11.9, 12.52, 12.35, 11.2, 10.19, 9.16, 9.82, 10.48, 10.04, 9.97, 10.35, 10.35, 10.73, 11.26, 11.85, 12.42, 12.42, 13.01, 13.01, 11.6, 4.65, 2.93, 3.82, 6.08, 7.68, 8.85, 9.17, 10.47, 11.8, 13.64, 14.58, 14.58, 15.79, 15.65, 9.8, 2.1, 2.1, 0.0, -9.66, -7.21, -4.96, -4.46, -5.37, -4.68, 0.0, 5.63, 10.12, 11.06, 10.75, 10.12, 9.42, -0.0, -5.1, -0.0, 9.21, 9.49, 10.15, -0.0, -0.0, -0.0, -0.0, -0.0, -0.0, -0.0, -0.0, -0.0, -0.0, -0.0, 6.95, 10.73, 10.73, 12.07, 11.18, 12.07, 8.85, 8.85, 0.0, 0.0, 0.0, 0.0, 7.0, 13.59, 14.75, 15.2, 14.3, 12.96, 9.6, 7.59, 5.21, 6.95, 9.83, 11.62, 13.67, 14.11, 13.86, 13.86, 13.41, -10.12, 0.0, 13.41, 13.01, 13.19, 9.96, 8.85, 9.42, 9.16, 10.73, 10.35, 9.97, 11.2, 11.87, 11.87, 12.86, 12.86, 12.88, 12.91, 12.9, 8.85, -0.0, 1.64, 4.24, 5.99, 8.24, 10.09, 10.37, 11.33, 12.52, 13.44, 13.44, 13.35, 15.75, 16.41, 16.54, 0.0, 0.0, 2.39, 3.65, -3.14, -1.67, -2.04, -2.13, 0.0, 2.99, 7.58, 10.25, 11.06, 9.8, 7.82, 8.85, -3.8, -3.8, 8.94, 7.76, 9.84, 10.23, -0.0, -0.0, -0.0, -0.0, -0.0, -0.0, -0.0, -0.0, -0.0, -0.0, 5.0, 6.95, 10.28, 11.18, 12.52, 11.18, 0.0, 9.17, 9.17, 13.41, 13.41, 13.41, 6.0, 3.79, 6.8, 8.43, 13.02, 14.39, 14.75, 9.48, 8.53, 11.45, 12.52, 12.52, 11.18, 12.35, 12.3, 11.02, 11.62, 11.62, -12.96, -13.86, -16.09, 16.99, 7.2, 6.4, 6.76, 7.95, 8.53, 9.96, 9.3, 11.21, 11.87, 12.04, 12.52, 12.52, 12.07, 12.07, 12.07, 12.07, 3.68, -0.0, 2.19, 5.98, 7.54, 10.65, 12.11, 12.3, 12.0, 12.47, 12.94, 13.38, 13.86, 14.3, 15.2, 15.2, 14.75, 12.52, 10.01, 10.12, 7.0, 0.0, 0.0, 0.82, 2.53, 5.2, 7.53, 9.6, 9.4, 8.02, 5.0, -2.4, -1.49, -0.0, 8.06, 7.2, 9.3, 9.67, -0.0, -0.0, -0.0, -0.0, -0.0, -0.0, -0.0, -0.0, -0.0, -0.0, -0.0, 8.22, 12.96, 12.96, 12.52, 0.0, 0.0, 0.0, 0.0, 13.41, 13.41, 9.48, 13.86, 10.12, 3.14, 6.2, 5.46, 0.0, 15.65, 14.3, 13.15, 14.42, 14.75, 13.86, 12.52, 11.46, 10.0, 10.0, 9.97, 10.28, -12.96, -14.75, -14.75, -12.52, -8.22, -0.0, 5.6, 8.1, 8.85, 9.42, 10.3, 9.42, 10.8, 11.95, 12.07, 11.46, 11.03, 11.28, 11.51, 11.28, 2.71, 2.1, 2.49, 6.45, 12.39, 13.57, 13.15, 12.9, 11.78, 11.88, 12.48, 13.39, 14.22, 14.66, 14.27, 13.33, 11.62, 11.95, 13.63, 14.65, 12.71, 1.42, 0.82, 2.06, 3.46, 4.92, 6.21, 8.01, 7.22, 6.95, -0.0, -0.0, -0.0, 8.05, 6.79, 7.69, 9.3, 8.65, -0.0, -0.0, -0.0, -0.0, -0.0, -0.0, -0.0, -0.0, -0.0, -0.0, -0.0, 11.6, 11.45, 13.41, 13.86, 9.48, 0.0, 0.0, 0.0, 0.0, 0.0, 0.0, 9.8, 6.4, 4.52, 3.68, 0.0, 0.0, 0.0, 10.12, 13.19, 13.76, 13.99, 13.86, 12.07, 11.18, 10.52, 8.91, 11.03, 0.0, -9.17, -12.3, -10.4, -10.28, -0.0, -0.0, 6.45, 8.53, 9.96, 8.54, 7.68, 7.95, 9.3, 10.09, 11.03, 11.62, 11.46, 9.97, 11.28, 6.45, 3.07, 2.49, 3.68, 8.31, 11.44, 12.39, 13.15, 12.91, 11.03, 9.67, 11.55, 12.87, 13.83, 14.36, 13.99, 12.18, 9.86, 10.16, 11.45, 14.51, 15.87, 11.7, 3.25, 2.31, 3.06, 3.88, 5.7, 6.51, 6.77, 6.32, 7.6, 8.49, 6.0, 4.22, 6.01, 8.03, 9.3, 7.41, -0.0, -0.0, -0.0, -0.0, -0.0, -0.0, -0.0, -0.0, -0.0, -0.0, 12.96, 13.86, 13.86, 13.86, 14.3, 12.79, 11.06, 7.0, 4.95, 2.4, 0.0, 0.0, 5.37, 4.66, 6.6, 0.0, 0.0, 0.0, 0.0, 9.8, 10.79, 11.6, 12.07, 11.18, 5.0, 11.71, 11.62, 11.62, 12.07, 0.0, 0.0, 0.0, 11.62, 11.18, -0.0, -0.0, 2.6, 4.15, 5.75, 4.4, 5.2, 6.48, 7.64, 7.78, 7.13, 7.9, 8.22, 12.07, 0.0, -2.28, -0.0, 2.94, 5.63, 7.32, 7.82, 9.06, 10.69, 11.53, 12.52, 9.27, 9.88, 11.6, 13.28, 13.47, 12.79, 11.88, 9.76, 8.53, 10.12, 11.99, 14.03, 13.8, 10.75, 6.67, 4.0, 3.55, 4.5, 5.63, 6.3, 6.01, 3.8, 6.17, 5.1, 4.02, 5.82, 7.97, 7.68, 4.71, -0.0, -0.0, 4.52, -0.0, -0.0, -0.0, -0.0, -0.0, -0.0, 13.41, 13.41, 13.86, 14.75, 14.3, 13.41, 12.52, 12.52, 13.7, 14.39, 15.61, 15.9, 16.09, 15.65, 16.09, 13.41, 12.96, 12.52, 7.63, 7.9, 10.28, 10.73, 11.62, -0.0, 9.83, 0.0, 10.28, 10.28, -0.0, -12.52, 0.0, 13.86, 9.48, 8.53, 5.0, -0.0, -0.0, -0.0, -0.0, 1.76, 1.76, 2.33, 3.97, 4.87, 5.4, 5.4, 6.21, 8.05, 8.85, -0.0, -5.29, -0.85, 3.14, 4.24, 2.89, 2.24, 4.81, 7.67, 8.83, 9.8, 11.99, 12.96, 12.52, 12.91, 12.58, 11.26, 10.18, 9.17, 8.01, 8.85, 11.16, 13.59, 12.72, 6.94, 10.43, 7.59, 6.64, 4.96, 4.2, 4.0, 4.0, 4.4, 4.8, 3.8, 4.22, 6.95, 8.73, 5.9, -7.6, -0.0, 4.38, 4.52, 4.66, -0.0, -0.0, -0.0, -0.0, -0.0, 13.86, 13.86, 14.3, 14.75, 15.2, 15.65, 15.2, 14.3, 13.41, 12.83, 13.33, 13.41, 13.36, 13.23, 12.94, 12.94, 12.94, 12.85, 12.72, 10.8, 9.33, 10.73, 11.62, 11.62, 11.18, 10.28, -6.95, -7.27, -10.0, -11.62, -12.07, -0.0, -0.0, -0.0, -0.0, -2.39, -2.17, -2.39, -2.49, -0.0, -0.0, -0.0, 1.47, 2.97, 4.4, 4.32, 5.4, 6.63, 11.06, 10.16, -1.58, -3.18, 1.11, 2.48, -0.0, -0.99, 0.95, 3.95, 6.35, 8.18, 9.11, 10.75, 11.07, 10.56, 10.46, 12.07, 10.01, 9.17, 10.04, 10.41, 12.07, 9.6, 11.62, 6.94, 3.25, 10.41, 11.2, 7.59, 4.4, 4.4, 3.8, 4.6, 3.52, 2.99, 4.94, 8.02, 9.53, 5.7, -7.15, -0.0, 6.2, 4.38, 4.52, 6.6, 6.4, -0.0, -0.0, -0.0, 14.3, 14.3, 14.3, 14.75, 15.2, 16.09, 16.09, 16.09, 15.2, 14.75, 14.3, 14.3, 14.3, 14.7, 15.43, 15.43, 15.43, 14.11, 14.07, 13.53, 12.83, 11.62, 11.62, 12.07, 10.73, 10.28, -6.95, -6.64, -7.27, -10.28, -10.73, -11.62, -7.9, -0.0, -0.0, -3.11, -3.11, -4.46, -6.95, -7.59, -4.8, -0.0, -0.0, 13.41, 13.86, 12.52, 11.62, -0.0, 10.8, 13.2, 3.11, -4.48, -0.0, -0.0, -1.43, -1.98, -1.98, -0.0, 2.71, 6.67, 8.01, 9.31, 10.43, 10.98, 10.04, 8.8, 10.6, 7.59, 9.2, 9.83, 9.83, 9.83, 8.55, 8.85, 5.31, 5.6, 9.48, 11.6, 10.18, 6.32, 5.37, 4.83, 2.82, 3.2, 5.1, 7.97, 9.17, 8.8, 5.37, -0.0, 6.2, 6.2, 10.12, 10.12, 6.4, 6.4, 10.12, 10.12, 14.3, 14.3, 14.75, 14.75, 15.2, 16.09, 16.54, 16.54, 16.54, 16.09, 15.65, 15.2, 15.2, 15.65, 16.04, 16.04, 16.48, 16.04, 15.59, 15.2, 14.75, 13.86, 12.27, 12.07, 10.73, 10.28, 9.83, 10.28, -0.0, 11.18, 10.28, 10.73, 11.62, -0.0, -0.0, -4.2, -2.83, -4.0, -3.8, -8.0, -9.83, 10.28, 10.28, 0.0, 0.0, 0.0, -7.2, -2.69, 9.21, 12.43, 8.01, -3.07, -4.32, -5.0, -5.0, -5.0, -3.98, -2.71, -0.0, 5.52, 8.22, 8.22, 10.29, 11.77, 10.41, 10.18, 6.95, 5.29, 8.03, 10.08, 11.18, 7.9, 5.75, 5.52, 3.98, 1.45, 3.96, 9.48, 9.3, 8.4, 6.64, 6.95, 4.37, 3.55, 4.56, 6.32, 7.28, 6.44, 6.44, 9.8, 6.2, 6.2, 10.12, 10.12, 10.12, 10.12, 6.4, 10.12, 10.12, 14.75, 14.75, 14.75, 15.2, 15.65, 16.09, 16.22, 16.99, 16.99, 16.54, 16.09, 16.09, 16.09, 16.47, 16.48, 16.48, 16.49, 16.09, 15.65, 15.2, 15.08, 15.05, 13.59, 11.62, 10.28, 8.94, -0.0, -0.0, 11.18, 10.73, 10.28, 10.73, 7.59, -0.0, -4.2, -2.69, -2.69, -3.6, -0.0, -0.0, 8.49, 8.49, 8.49, 8.49, 8.05, 8.05, 0.0, 6.95, 11.62, 8.22, -0.0, -4.8, -7.27, -6.95, -8.4, -8.91, -7.6, -2.39, 3.25, 7.59, 8.63, 10.62, 12.52, 11.44, 11.18, 5.0, 6.7, 10.12, 11.9, 13.15, 12.96, 6.94, 4.48, 2.28, 2.1, 1.54, 1.69, 2.39, 4.0, 5.36, 6.64, 3.68, 4.22, 6.06, 6.98, 7.15, 6.52, 6.52, 9.8, 6.2, 6.4, 9.8, 11.53, 11.9, 11.9, 10.43, 10.12, 12.79, 10.43, 14.75, 15.2, 15.2, 15.65, 15.65, 15.34, 16.22, 16.99, 16.99, 16.54, 16.09, 16.09, 16.03, 15.87, 16.04, 16.09, 16.09, 16.09, 16.46, 16.86, 16.48, 15.47, 13.57, 8.0, 8.94, 9.39, 10.73, 10.28, 10.28, 7.59, 8.94, 9.83, -0.0, -0.0, -4.0, -2.83, -0.0, -0.0, -0.0, -0.0, -0.0, -0.0, 6.64, 6.64, 9.39, 9.83, 10.28, -0.0, -0.0, 5.0, -0.0, -0.0, -4.2, -6.64, -5.69, -8.94, -7.6, 2.97, 9.45, 12.92, 11.86, 11.8, 9.97, 6.45, 2.81, 7.43, 11.06, 12.76, 12.65, 12.95, 13.72, 9.48, 2.45, 0.0, 0.0, 0.0, 0.0, 2.33, 4.21, 5.86, 5.69, 4.56, 5.59, 7.27, 6.64, 6.64, 6.64, 12.39, 9.8, 10.12, 10.12, 11.53, 11.53, 11.9, 11.9, 10.43, 10.43, 13.19, 13.59, 15.2, 15.2, 15.2, 15.2, 15.65, 16.09, 16.54, 16.54, 15.93, 15.97, 15.65, 15.11, 15.34, 16.03, 16.54, 16.54, 16.54, 17.33, 17.26, 17.19, 17.19, 15.27, 11.62, 7.6, 4.0, 7.27, 7.59, 4.6, 4.4, 0.0, 8.49, 8.49, -0.0, -0.0, -0.0, -0.0, -0.0, -0.0, -0.0, 4.4, 4.4, 6.95, 6.95, 8.8, 6.95, 4.6, 4.8, 7.9, 10.0, 7.27, -0.0, -2.97, -2.97, -2.69, -3.6, -3.8, 2.39, 10.0, 15.49, 13.32, 12.88, 13.7, 5.98, 4.42, 9.61, 12.76, 13.65, 13.81, 13.37, 13.57, 13.8, 0.0, 0.0, 0.0, 0.0, 0.0, 2.06, 3.61, 5.06, 6.01, 4.75, 5.13, 6.42, 6.04, 5.76, 5.76, 12.39, 9.8, 9.8, 11.9, 11.53, 11.53, 11.9, 11.9, 12.27, 12.27, 12.27, 14.42, 15.65, 15.65, 15.2, 16.99, 14.75, 15.65, 15.65, 15.2, 15.49, 15.47, 15.43, 16.54, 15.2, 16.54, 13.86, 16.99, 17.43, 16.09, 17.43, 17.53, 16.96, 16.54, 13.99, 10.73, 7.87, 6.64, 5.46, 6.2, 5.7, 7.27, 10.28, 9.83, 4.4, 4.4, 4.4, -0.0, -0.0, -0.0, -0.0, 6.95, 6.95, 6.95, 6.95, 7.27, 6.95, 7.59, 10.0, 10.0, 10.18, 9.2, -0.0, -2.69, -4.0, -3.8, -2.69, 4.0, 4.88, 9.82, 13.8, 15.43, 17.81, 17.85, 17.02, 16.31, 15.65, 15.2, 15.53, 15.41, 14.28, 14.27, 13.32, 0.0, 0.0, 0.0, 2.02, 1.84, 1.33, 0.0, 1.39, 5.21, 5.36, 4.8, 5.06, 5.46, 6.17, 6.17, 13.15, 13.15, 11.53, 11.53, 11.53, 11.53, 12.79, 12.79, 12.27, 12.27, 13.99, 14.42, 15.65, 15.65, 15.65, 15.2, 14.75, 14.75, 15.65, 15.2, 16.99, 15.78, 14.94, 15.59, 15.36, 16.31, 16.54, 16.09, 16.99, 16.99, 17.43, 17.43, 17.1, 16.19, 16.12, 13.59, 11.6, 10.4, 9.2, 7.6, 8.48, 9.26, 9.39, 8.91, 8.0, 8.93, 8.8, 6.95, 6.64, -0.0, -0.0, -0.0, -0.0, -0.0, 4.0, 6.64, 7.59, 8.18, 9.75, 10.73, 10.28, 9.83, -0.0, -4.2, -3.8, -5.1, -6.32, -0.0, 10.28, 11.62, 12.72, 14.56, 18.48, 19.66, 18.78, 16.0, 12.46, 11.58, 14.93, 15.09, 15.17, 15.17, 14.64, -3.25, -5.4, 0.0, 3.25, 5.7, 2.19, 0.0, 0.0, 3.97, 5.57, 4.07, 3.88, 4.99, 5.45, 5.45, 13.44, 13.44, 13.44, 12.39, 12.39, 12.39, 12.39, 12.79, 13.19, 14.75, 14.31, 14.75, 15.65, 15.65, 15.65, 15.65, 14.75, 14.75, 12.71, 15.2, 16.99, 16.54, 16.22, 14.94, 16.33, 16.48, 16.09, 16.99, 17.43, 17.88, 17.88, 17.43, 17.43, 17.2, 16.76, 15.9, 14.18, 11.92, 11.18, 9.97, 9.32, 9.83, 9.83, 9.77, 9.11, 10.41, 9.33, 8.8, 6.64, 6.64, -0.0, -0.0, -0.0, -0.0, 4.4, 6.32, 6.17, 7.27, 10.18, 9.83, 9.83, 9.83, -6.95, -8.8, -6.32, -6.32, -6.64, -0.0, 6.44, 7.56, 8.67, 12.37, 17.12, 19.62, 18.68, 14.4, 9.59, 10.19, 11.38, 13.16, 14.93, 15.54, 15.2, 0.0, -11.16, -5.2, 10.73, 6.95, 8.23, 3.82, 2.04, 3.96, 4.65, 3.45, 2.97, 3.81, 4.66, 4.66, 13.44, 13.44, 13.44, 12.39, 12.39, 12.39, 12.39, 12.79, 14.31, 14.75, 14.75, 14.75, 15.2, 15.65, 15.65, 15.65, 15.2, 14.75, 14.55, 16.37, 16.99, 16.54, 16.09, 15.87, 16.82, 17.74, 17.43, 16.54, 16.54, 16.99, 17.43, 17.43, 17.43, 17.43, 16.86, 16.86, 15.53, 13.75, 12.42, 11.11, 10.22, 9.83, 9.39, 9.39, 8.89, 7.97, 10.28, 9.83, 9.39, 8.94, 8.49, -0.0, -0.0, -0.0, 4.0, 4.4, 2.39, 4.8, 7.59, 9.83, -8.94, -8.91, -7.81, -6.64, -6.64, -2.97, -4.2, -0.0, -0.0, -0.0, 2.93, 8.46, 14.86, 17.43, 6.7, 6.09, 7.69, 8.2, 8.4, 9.39, 12.05, 13.81, 15.05, 14.3, 9.8, 0.0, 0.0, 5.21, 7.21, 7.9, 6.71, 4.08, 2.28, 0.0, 2.06, 3.15, 3.32, 3.32, 13.59, 13.59, 13.59, 12.87, 12.87, 12.87, 13.28, 14.03, 14.47, 14.9, 14.9, 14.9, 15.65, 15.65, 15.65, 15.65, 15.2, 14.75, 15.2, 16.54, 16.99, 16.09, 15.2, 15.2, 16.37, 17.3, 17.77, 17.43, 16.99, 16.09, 16.54, 16.54, 16.54, 16.54, 16.54, 16.54, 16.09, 14.75, 12.96, 11.62, 10.73, 10.28, 9.83, 8.94, 8.0, 7.54, 9.83, 9.39, 8.94, 8.49, 8.05, -0.0, -0.0, -0.0, -0.0, -0.0, -0.0, 2.49, 3.39, -8.94, -8.94, -8.94, -8.4, -4.0, -2.83, -2.28, -0.0, -0.0, -0.0, -4.2, -6.2, 3.96, 18.16, 16.58, 0.0, 0.0, 3.28, 6.14, 6.87, 7.8, 8.26, 10.54, 12.39, 13.37, 13.15, 8.53, 4.6, 5.86, 6.69, 9.3, 8.85, 7.9, 7.27, 8.94, 6.01, 3.8, 3.15, 3.15, 13.59, 13.59, 13.59, 12.87, 12.87, 12.87, 12.87, 14.03, 14.47, 14.9, 14.9, 15.34, 15.34, 15.65, 15.65, 15.65, 15.65, 14.75, 15.65, 16.09, 16.54, 16.99, 16.09, 14.75, 15.08, 16.41, 17.3, 17.43, 17.43, 16.99, 16.09, 16.09, 16.09, 16.09, 16.09, 16.09, 16.09, 15.2, 13.41, 11.62, 10.28, 9.83, 10.28, 10.28, 8.94, 7.6, 9.83, 9.39, 8.94, 8.94, 8.94, 6.01, -0.0, -0.0, -0.0, -0.0, -0.0, -0.0, 4.6, -0.0, -8.49, -8.49, -8.49, -2.69, -2.17, -1.84, -0.0, -0.0, -0.0, -4.4, -9.75, 14.13, 17.86, 18.75, 17.1, 0.0, 0.0, 3.6, 5.67, 5.41, 6.24, 7.93, 9.8, 10.38, 10.79, 8.22, 6.24, 5.72, 4.2, 9.39, 6.64, 9.39, 9.39, 8.94, 6.01, 5.1, 3.32, 3.32, 13.59, 13.59, 13.59, 12.87, 12.87, 12.87, 13.59, 14.03, 14.47, 14.9, 14.9, 14.9, 15.34, 15.34, 15.65, 15.65, 15.65, 15.2, 15.2, 16.09, 16.09, 16.99, 16.99, 16.54, 15.53, 15.53, 16.86, 17.43, 17.43, 16.99, 16.99, 16.54, 15.65, 15.65, 16.09, 16.09, 16.09, 15.65, 14.3, 12.07, 10.28, 9.83, 9.83, 10.28, 9.83, 9.39, 8.05, 8.49, 8.94, 9.39, 8.82, 10.28, 8.49, 5.69, -0.0, -0.0, -0.0, -0.0, 8.94, 9.39, 9.83, 0.0, -8.94, -2.97, -2.28, -2.28, -0.0, -0.0, -0.0, 0.0, 3.07, 10.62, 16.37, 17.8, 18.7, 18.65, 18.33, 6.31, 5.18, 4.33, 4.66, 6.47, 8.43, 10.27, 9.48, 7.15, 5.7, 2.17, -8.94, -4.96, -6.95, 9.83, 6.95, 8.91, 7.44, 7.15, 6.32, 6.32, 13.59, 13.59, 12.87, 12.87, 12.87, 12.87, 12.87, 14.03, 14.47, 14.47, 14.9, 14.9, 15.34, 15.43, 15.65, 15.65, 15.65, 15.65, 15.65, 15.65, 15.65, 16.09, 16.99, 16.99, 16.54, 15.97, 15.97, 16.99, 17.43, 17.43, 16.99, 16.99, 16.54, 16.54, 16.09, 16.09, 16.09, 16.09, 15.65, 13.41, 11.18, 10.28, 9.83, 9.83, 10.28, 10.28, 9.83, 8.49, 8.94, 9.39, 9.39, 8.49, 9.83, 8.49, 8.49, 8.49, 8.05, 8.05, 8.05, 6.32, 9.33, 9.75, 8.94, -0.0, -0.0, -0.0, -0.0, -0.0, -3.25, 0.0, 3.98, 10.79, 13.28, 16.97, 18.26, 18.62, 18.73, 18.73, 8.53, 4.28, 4.24, 5.51, 7.45, 8.14, 7.24, 6.7, 4.2, 0.0, -6.32, -3.8, 9.39, 0.0, 5.95, 7.27, 7.87, 7.51, 7.51, 7.51, 13.59, 13.59, 12.87, 12.87, 12.87, 12.87, 12.87, 13.59, 14.03, 14.47, 14.9, 14.9, 15.34, 14.99, 15.43, 15.65, 15.65, 15.65, 15.65, 15.65, 15.65, 15.65, 16.09, 16.54, 16.54, 16.54, 16.09, 16.54, 16.99, 16.99, 16.99, 16.99, 16.99, 16.99, 16.54, 16.54, 16.54, 16.54, 16.54, 15.65, 13.86, 12.07, 10.73, 9.83, 10.28, 10.28, 10.28, 9.39, 8.94, 8.94, 8.94, 8.94, 8.05, 7.6, 8.05, 7.6, 8.05, 7.6, -0.0, 7.6, 6.64, 9.11, 10.73, 2.17, -0.0, -0.0, -0.0, -3.25, -6.95, 0.0, 5.0, 8.22, 11.62, 13.86, 14.25, 15.11, 19.51, 18.06, 12.87, 0.97, 2.62, 4.91, 6.09, 6.15, 5.2, 5.92, 3.65, -8.49, -8.49, 8.94, 0.0, 7.27, 6.45, 5.2, 6.71, 8.58, 8.58, 8.58, 13.59, 13.59, 12.87, 12.87, 12.87, 12.87, 12.87, 13.59, 14.03, 14.03, 14.47, 14.9, 14.9, 14.99, 14.99, 14.99, 15.65, 15.65, 15.65, 15.65, 15.65, 15.65, 15.65, 15.65, 16.09, 16.09, 16.09, 16.09, 16.54, 16.54, 16.54, 16.54, 16.99, 16.99, 16.99, 16.54, 16.54, 16.99, 16.99, 16.09, 14.75, 12.96, 11.18, 9.83, 10.28, 9.83, 10.28, 9.83, 8.94, 8.94, 8.94, 8.49, 8.49, 7.6, 7.15, 7.6, 7.6, 7.6, -0.0, -5.37, 8.05, 8.94, 8.8, 2.97, -0.0, -0.0, -0.0, -0.0, 9.83, 0.0, 9.3, 10.35, 10.19, 10.87, 12.88, 14.3, 17.43, 16.91, 13.86, 0.0, 1.76, 5.09, 5.99, 5.62, 5.4, 4.9, 0.0, -6.01, 0.0, 4.4, 3.25, 6.2, 6.7, 5.6, 5.6, 7.24, 8.22, 8.22, 12.87, 12.87, 12.87, 12.87, 12.87, 12.87, 13.59, 14.03, 14.03, 14.03, 14.47, 14.9, 15.34, 15.43, 15.43, 14.99, 14.99, 15.2, 15.2, 15.2, 15.65, 15.65, 15.65, 15.65, 15.65, 15.65, 15.65, 16.09, 16.54, 16.54, 16.54, 16.54, 16.54, 16.54, 16.54, 16.54, 16.54, 16.99, 16.99, 16.54, 15.65, 13.41, 11.62, 9.83, 9.39, 9.74, 10.73, 11.51, 11.51, 9.39, 8.85, 8.85, 8.49, 8.05, 6.71, 6.71, 7.6, 7.6, -0.0, -5.37, -7.6, 8.94, 9.39, -0.0, -0.0, -0.0, 2.1, -0.0, 9.83, 0.0, 10.6, 12.04, 11.87, 9.76, 9.62, 12.92, 14.85, 14.64, 13.86, 5.4, 0.0, 4.43, 6.53, 6.69, 5.86, 3.98, 0.0, 0.0, 2.6, 5.0, 2.71, 3.68, 8.53, 5.8, 6.0, 7.78, 8.53, 8.53, 12.87, 12.87, 12.87, 12.87, 12.87, 12.87, 13.59, 14.03, 14.03, 14.03, 14.03, 14.9, 14.9, 15.34, 15.87, 15.43, 14.99, 14.99, 15.2, 15.2, 15.65, 15.65, 15.65, 15.65, 15.65, 15.65, 15.2, 15.65, 16.09, 16.09, 16.09, 16.09, 16.09, 16.09, 16.54, 16.54, 16.54, 16.54, 16.99, 16.99, 16.09, 14.3, 12.52, 9.83, 8.05, 9.83, 12.07, 13.23, 13.23, 12.35, 11.02, 8.82, 8.38, 7.45, 6.58, 6.58, 6.94, 7.15, 7.6, -7.15, -7.15, 8.94, 8.49, -0.0, -1.84, -0.0, -0.0, 5.95, 9.39, 4.4, 6.2, 11.09, 12.92, 13.32, 11.95, 13.04, 13.46, 12.52, 13.47, 13.15, 4.98, 4.31, 5.93, 7.25, 6.79, 6.9, 7.44, 7.19, 5.6, 5.6, 3.82, 8.85, 12.52, 10.79, 9.17, 9.17, 10.01, 10.01, 12.45, 12.45, 12.87, 12.87, 12.87, 12.87, 13.59, 14.03, 14.03, 14.47, 14.47, 14.03, 14.9, 14.9, 15.34, 15.43, 15.43, 15.43, 15.43, 15.43, 15.65, 15.65, 15.65, 15.65, 15.65, 15.65, 15.2, 14.75, 15.2, 15.65, 16.09, 15.65, 15.65, 15.65, 16.09, 16.09, 16.54, 16.54, 16.54, 16.99, 16.54, 15.2, 12.96, 10.73, 8.82, 10.08, 12.79, 14.11, 14.03, 13.15, 11.46, 9.26, 6.58, 6.58, 5.7, 5.2, 6.94, 7.21, 6.8, 7.15, 7.15, 0.0, 8.49, -2.83, -2.83, -2.06, -3.8, 9.83, 10.28, 9.97, 5.9, 7.59, 12.44, 14.73, 17.24, 15.86, 14.47, 11.87, 11.76, 14.24, 12.92, 4.01, 5.64, 7.82, 9.54, 10.77, 11.77, 13.03, 12.39, 11.6, 12.96, 12.96, 12.96, 12.27, 12.96, 12.96, 12.52, 12.52, 12.72, 12.72, 12.72, 12.87, 12.87, 12.87, 13.59, 14.03, 14.03, 14.47, 14.47, 14.47, 14.47, 15.34, 15.34, 15.43, 15.43, 15.87, 15.87, 15.87, 15.93, 16.09, 15.65, 15.65, 15.65, 15.65, 15.2, 14.3, 16.09, 14.75, 15.65, 16.09, 16.09, 15.65, 15.65, 16.09, 16.09, 16.54, 16.54, 16.54, 16.54, 15.65, 13.86, 11.18, 10.18, 10.84, 12.83, 14.75, 13.86, 12.52, 10.14, 7.94, 7.06, 6.58, 5.7, 4.77, 5.2, 6.94, 7.21, 6.4, 4.74, 0.0, 8.49, -0.0, -0.0, -2.69, -3.6, 0.0, 9.2, 9.96, 8.18, 0.0, 5.6, 15.2, 20.1, 21.19, 13.89, 8.85, 9.64, 13.03, 15.19, 13.26, 8.51, 9.88, 11.06, 11.7, 13.26, 13.18, 13.28, 12.71, 12.52, 11.87, 11.87, 11.2, 12.35, 12.35, 11.95, 11.95, 12.72, 12.72, 12.72, 13.15, 13.15, 12.87, 13.59, 14.03, 14.03, 14.47, 14.47, 14.47, 14.47, 14.47, 15.34, 15.34, 15.43, 15.43, 15.43, 15.87, 16.09, 16.09, 16.09, 15.65, 15.2, 15.2, 15.2, 14.3, 13.86, 15.65, 14.75, 15.65, 16.09, 16.09, 16.09, 16.09, 16.09, 16.54, 16.54, 16.54, 16.54, 16.09, 14.3, 12.07, 10.73, 11.53, 12.96, 13.86, 13.86, 11.62, 9.29, 8.85, 8.82, 7.94, 7.01, 6.14, 5.7, 5.2, 6.07, 6.07, 5.51, 7.6, 8.94, 5.69, -0.0, -1.95, -2.54, 8.49, 8.18, 10.41, 10.28, -10.73, 0.0, 11.44, 18.94, 25.42, 14.1, 0.0, 3.82, 10.94, 13.99, 15.53, 15.27, 15.69, 15.77, 16.28, 15.7, 14.52, 13.57, 12.79, 12.52, 11.71, 10.04, 12.14, 12.27, 12.35, 11.51, 11.51, 12.89, 12.89, 12.72, 12.72, 13.15, 13.15, 13.59, 14.03, 14.03, 14.47, 14.75, 15.2, 14.47, 14.47, 14.9, 15.34, 15.43, 15.43, 15.43, 16.09, 16.09, 16.54, 16.09, 16.09, 15.2, 15.2, 15.2, 14.75, 14.75, 14.75, 14.75, 15.2, 15.65, 15.65, 16.09, 16.09, 16.09, 16.09, 16.54, 16.54, 16.54, 16.54, 15.2, 12.96, 11.62, 11.62, 12.52, 13.86, 13.86, 12.07, 9.76, 9.29, 9.29, 8.82, 7.89, 7.01, 6.58, 6.14, 5.26, 5.7, 6.8, 8.05, 8.05, 6.01, -0.0, -4.22, -5.69, -7.2, 0.0, 10.28, 6.95, 8.22, 8.53, 8.97, 15.99, 23.45, 19.2, 14.3, 0.0, 12.39, 13.99, 14.95, 16.31, 16.71, 16.9, 17.28, 17.72, 15.93, 13.86, 12.52, 11.91, 11.21, 11.21, 11.84, 12.07, 11.91, 11.98, 11.98, 12.89, 12.89, 12.89, 12.72, 13.15, 13.15, 13.59, 14.03, 14.47, 14.75, 15.2, 15.2, 15.2, 14.75, 14.47, 14.9, 14.9, 14.99, 15.2, 15.65, 16.09, 16.09, 16.09, 16.09, 15.65, 15.2, 15.2, 14.75, 14.75, 15.2, 15.2, 15.2, 15.2, 15.2, 15.65, 15.65, 16.09, 16.09, 16.54, 16.54, 16.54, 16.09, 15.2, 13.41, 12.07, 11.62, 12.52, 13.41, 13.31, 12.86, 10.65, 10.18, 9.29, 8.82, 8.38, 7.45, 7.01, 6.58, 6.14, 5.29, 4.82, 8.05, 8.05, -0.0, -0.0, -7.6, -7.21, -8.49, -8.94, -9.39, 9.83, 11.62, 12.79, 11.81, 13.83, 17.7, 19.38, 17.9, 15.78, 15.6, 13.8, 13.9, 15.27, 16.27, 16.09, 16.09, 16.09, 14.3, 12.47, 11.84, 11.35, 10.84, 11.28, 11.53, 12.07, 12.07, 12.07, 12.07, 12.89, 12.89, 12.89, 12.89, 13.15, 13.15, 14.11, 14.03, 14.47, 14.75, 15.2, 15.2, 15.2, 14.75, 14.47, 14.9, 14.9, 15.2, 15.2, 15.65, 15.65, 16.09, 16.09, 16.09, 15.65, 15.2, 15.2, 14.75, 14.75, 15.2, 15.2, 15.2, 14.75, 14.75, 14.75, 15.2, 15.65, 15.65, 16.09, 16.09, 16.09, 16.09, 15.65, 13.41, 12.07, 11.62, 12.07, 12.86, 13.31, 12.86, 11.53, 10.2, 9.74, 9.29, 8.38, 7.47, 7.06, 6.64, 6.23, 5.4, 5.09, 5.26, 8.05, 7.6, -0.0, -8.94, -8.05, -8.49, -8.94, -8.94, -10.73, 10.28, 13.41, 13.41, 14.53, 15.08, 16.07, 17.83, 20.86, 21.46, 18.48, 13.2, 11.52, 13.57, 13.86, 13.41, 12.96, 12.07, 11.62, 11.14, 11.13, 11.12, 11.55, 11.62, 11.62, 12.07, 12.07, 12.07, 12.58, 12.58, 12.89, 12.89, 13.32, 13.15, 14.11, 14.11, 14.47, 14.47, 15.2, 15.2, 15.2, 14.9, 14.47, 14.47, 14.9, 15.2, 15.2, 15.65, 15.65, 15.65, 16.09, 16.09, 15.65, 15.2, 15.2, 14.75, 14.75, 15.2, 15.2, 15.2, 14.75, 14.75, 14.75, 14.75, 14.75, 15.2, 15.65, 16.09, 16.09, 16.09, 15.2, 12.96, 10.28, 10.73, 11.53, 12.39, 12.83, 12.83, 11.95, 11.06, 10.18, 9.46, 8.48, 7.63, 7.06, 7.06, 6.23, 5.81, 5.4, 4.8, 8.05, 7.6, 8.05, 8.94, -8.05, -7.6, -8.0, -8.94, -9.39, -0.0, 10.41, 14.51, 14.73, 13.88, 14.18, 16.19, 20.3, 22.6, 20.72, 13.7, 8.05, 9.17, 12.27, 12.44, 12.47, 11.14, 11.18, 11.18, 11.62, 11.62, 11.62, 12.07, 12.07, 11.62, 12.0, 11.98, 12.58, 12.58, 13.01, 12.89, 13.32, 13.32, 14.11, 14.11, 14.47, 14.47, 14.9, 14.9, 14.9, 14.9, 14.9, 14.47, 14.47, 15.2, 15.2, 15.65, 15.65, 15.65, 15.65, 16.09, 15.65, 15.2, 14.75, 14.75, 14.75, 14.75, 15.2, 14.75, 14.75, 14.75, 14.75, 14.75, 14.3, 15.2, 15.2, 15.65, 15.65, 16.09, 14.75, 12.07, 9.74, 10.73, 11.53, 12.04, 12.89, 12.46, 12.04, 11.18, 10.32, 9.33, 8.48, 8.06, 7.06, 7.06, 6.0, 5.6, 4.98, 4.8, 7.2, 7.15, 7.6, 8.49, -8.49, -8.05, -8.49, -8.49, -8.94, -7.27, 10.8, 13.83, 17.43, 15.11, 12.99, 14.03, 17.74, 19.91, 18.17, 15.16, 13.28, 7.44, 10.79, 12.3, 12.22, 11.57, 11.57, 11.62, 11.62, 11.62, 11.62, 12.07, 12.07, 12.02, 12.01, 12.0, 12.58, 12.58, 12.58, 13.01, 13.32, 13.32, 13.57, 14.11, 14.55, 14.47, 14.9, 14.9, 14.9, 14.9, 14.9, 14.47, 14.47, 14.75, 15.2, 15.2, 15.65, 15.65, 15.65, 15.65, 15.65, 15.2, 14.75, 14.75, 14.3, 14.3, 14.75, 14.75, 14.75, 14.75, 14.3, 14.75, 14.3, 14.3, 15.2, 15.2, 15.65, 15.65, 14.75, 12.07, 10.73, 12.07, 13.75, 13.57, 13.57, 13.15, 12.46, 11.61, 10.32, 9.75, 8.48, 7.89, 7.47, 6.8, 6.4, 6.0, 5.6, 4.98, 4.46, 5.69, 8.05, 8.05, 7.6, -8.05, -8.05, 8.49, -8.94, -8.94, 8.22, 12.96, 15.49, 16.22, 15.65, 14.53, 15.01, 14.68, 14.55, 14.72, 14.4, 10.12, 0.0, 10.79, 12.79, 11.95, 12.07, 12.07, 11.62, 11.62, 11.62, 12.02, 12.02, 12.01, 12.02, 12.01, 12.58, 12.58, 12.58, 13.01, 12.89, 13.32, 13.32, 14.11, 14.11, 14.55, 14.55, 14.47, 14.9, 14.9, 14.47, 14.47, 14.47, 14.75, 14.75, 15.2, 15.2, 15.2, 15.2, 15.65, 15.65, 15.65, 14.75, 14.3, 14.3, 14.3, 14.3, 14.75, 14.75, 14.75, 14.3, 14.3, 14.3, 13.86, 14.3, 14.75, 14.75, 15.05, 14.16, 12.35, 11.03, 12.79, 15.05, 15.43, 14.55, 13.57, 13.15, 11.87, 10.18, 9.33, 8.48, 7.89, 6.9, 6.8, 6.8, 6.4, 6.0, 4.98, 6.8, 5.06, 5.37, 8.05, 0.0, -8.49, -7.6, -8.05, -8.49, -4.0, 3.39, 9.3, 12.52, 15.04, 18.6, 19.22, 14.6, 9.66, 10.4, 12.42, 13.41, 12.96, 0.0, 11.2, 12.07, 12.07, 11.62, 11.62, 11.62, 11.53, 11.55, 12.01, 12.02, 12.01, 12.01, 12.01, 12.22, 12.22, 12.58, 12.58, 13.01, 12.89, 13.32, 13.75, 13.75, 14.11, 14.55, 14.55, 14.47, 14.47, 14.47, 14.47, 14.47, 14.55, 14.75, 14.75, 15.2, 15.2, 15.2, 15.2, 15.2, 15.2, 14.75, 14.3, 14.3, 13.86, 13.86, 13.86, 14.3, 14.3, 14.3, 13.86, 13.86, 13.41, 13.86, 14.3, 14.16, 14.16, 13.72, 12.39, 11.61, 12.89, 14.6, 14.99, 14.11, 13.15, 12.72, 11.45, 9.33, 8.91, 8.48, 7.6, 7.2, 7.2, 7.2, 6.32, 6.4, 5.75, 4.65, 6.8, 5.37, 7.6, 8.05, 8.05, -5.06, -5.69, -8.49, -2.69, 0.0, 5.9, 9.67, 13.33, 17.36, 21.95, 17.77, 10.8, 3.53, 11.4, 12.07, 12.52, 12.14, 11.45, 11.4, 11.46, 11.51, 11.53, 11.53, 11.28, 11.35, 11.78, 11.84, 12.0, 12.0, 12.0, 12.22, 12.22, 12.14, 12.14, 13.01, 12.89, 13.32, 13.32, 13.32, 13.57, 13.57, 14.55, 14.55, 14.55, 14.55, 14.55, 14.55, 14.55, 14.75, 14.75, 15.2, 15.2, 15.2, 15.2, 15.2, 15.2, 14.75, 14.3, 13.86, 13.86, 13.41, 13.41, 13.41, 13.86, 14.3, 13.41, 13.41, 13.41, 13.41, 13.28, 13.72, 13.72, 13.28, 11.61, 11.18, 12.46, 14.16, 14.16, 13.28, 12.04, 11.61, 10.6, 8.91, 8.91, 8.48, 8.0, 7.2, 7.2, 6.7, 6.7, 5.93, 5.93, 4.74, 5.37, 5.37, 7.6, 8.05, -0.0, -3.2, -5.37, -8.05, -2.69, 0.0, 3.82, 7.15, 9.53, 13.88, 18.7, 20.17, 16.96, 14.99, 14.99, 15.15, 13.8, 12.56, 12.04, 10.8, 11.45, 11.3, 11.45, 11.45, 10.88, 11.45, 11.87, 11.78, 11.78, 11.78, 11.78, 11.87, 11.87, 12.3, 12.14, 12.56, 13.01, 13.44, 13.32, 13.75, 13.75, 13.57, 13.99, 14.55, 14.55, 14.55, 14.55, 14.55, 14.55, 14.75, 14.75, 15.2, 15.2, 15.2, 15.2, 15.2, 15.2, 14.75, 14.3, 13.86, 13.41, 13.41, 13.41, 13.41, 13.41, 13.41, 13.41, 12.96, 13.41, 13.28, 13.28, 13.28, 13.28, 12.83, 11.18, 10.75, 11.61, 12.89, 12.89, 12.89, 11.61, 10.75, 9.89, 8.0, 8.0, 7.6, 7.6, 7.2, 7.2, 6.32, 6.7, 6.28, 5.93, 5.59, 4.43, 7.2, 8.05, 8.05, -0.0, -5.37, -7.6, 0.0, 0.0, 0.0, 3.25, 5.95, 7.9, 11.87, 14.75, 16.96, 17.42, 16.48, 18.29, 19.67, 18.33, 13.07, 9.48, 9.84, 10.99, 10.41, 10.55, 10.87, 10.62, 11.44, 11.03, 11.3, 10.88, 10.88, 10.88, 11.87, 11.87, 12.3, 12.14, 12.14, 12.56, 13.01, 13.32, 13.75, 13.75, 13.57, 13.57, 14.55, 14.55, 14.55, 14.55, 14.55, 14.55, 14.75, 14.75, 14.75, 15.2, 15.2, 15.2, 15.2, 15.2, 14.75, 14.3, 13.86, 13.86, 13.41, 12.96, 12.96, 12.96, 12.96, 12.96, 12.96, 12.83, 13.28, 12.83, 12.83, 12.83, 12.83, 11.18, 10.75, 11.45, 12.3, 12.46, 12.46, 11.09, 10.27, 9.04, 8.0, 7.6, 7.2, 7.2, 7.2, 6.7, 6.32, 6.32, 6.32, 5.93, 5.59, 5.24, 4.65, 7.6, 8.05, 7.15, 7.6, 8.05, 0.0, 0.0, 0.0, 3.65, 6.17, 10.18, 11.62, 12.9, 13.35, 12.05, 13.04, 18.72, 22.23, 19.51, 16.09, 8.31, 7.69, 9.48, 9.17, 9.84, 9.66, 9.3, 9.67, 9.66, 9.86, 10.4, 10.4, 10.4, 11.87, 11.87, 12.3, 12.14, 12.56, 12.56, 13.01, 13.44, 13.32, 13.75, 13.75, 13.75, 14.55, 14.55, 14.55, 14.55, 14.55, 14.55, 14.75, 14.75, 14.75, 15.2, 15.2, 15.2, 15.2, 15.2, 14.75, 14.3, 13.86, 13.86, 13.41, 12.96, 12.96, 12.52, 12.52, 12.52, 12.39, 12.39, 12.83, 12.83, 12.83, 12.83, 12.46, 11.61, 10.75, 11.45, 11.87, 11.2, 11.5, 10.68, 9.86, 9.04, 8.0, 7.6, 7.2, 7.2, 6.7, 6.32, 6.99, 6.32, 5.95, 5.59, 5.24, 4.89, 4.11, 7.6, 7.6, 8.05, 8.49, 8.05, 0.0, 0.0, 0.0, 0.0, 7.27, 10.73, 9.3, 10.41, 9.76, 7.96, 10.58, 16.45, 21.28, 20.54, 17.91, 16.09, 7.13, 7.03, 8.21, 7.95, 8.22, 8.22, 8.41, 8.41, 7.9, 8.94, 8.94, 8.94, 11.87, 11.87, 12.3, 12.14, 12.14, 12.56, 13.44, 13.44, 13.32, 13.32, 13.75, 13.75, 14.16, 14.55, 14.55, 14.55, 14.55, 14.55, 14.75, 14.3, 14.3, 14.75, 15.2, 15.2, 15.2, 15.2, 14.75, 14.3, 13.86, 13.86, 13.41, 13.41, 12.96, 12.52, 12.52, 11.91, 11.95, 12.39, 12.39, 12.39, 12.39, 12.04, 12.04, 11.61, 10.75, 10.8, 11.2, 11.2, 10.8, 10.0, 9.6, 9.2, 8.4, 8.0, 6.7, 6.32, 6.32, 6.32, 6.6, 6.32, 5.84, 4.74, 4.89, 4.19, 3.48, 7.2, 7.6, 7.6, 8.05, 8.05, -8.94, -6.01, -4.0, -6.64, 9.83, 10.28, 5.95, 4.32, 5.4, 7.51, 10.59, 13.99, 17.47, 19.17, 21.03, 19.33, 16.22, 5.36, 7.18, 7.24, 6.7, 7.26, 7.9, 6.7, 7.9, 7.9, 7.9, 7.9, 11.87, 11.87, 12.3, 12.14, 12.14, 12.56, 13.44, 13.44, 13.32, 13.75, 13.75, 13.75, 14.6, 14.6, 14.55, 14.55, 14.55, 14.55, 14.75, 14.75, 14.75, 14.75, 15.2, 15.2, 15.2, 14.75, 14.75, 14.3, 13.86, 13.41, 13.41, 13.41, 12.96, 12.52, 12.52, 11.91, 11.91, 11.95, 11.95, 12.39, 12.04, 12.04, 12.04, 11.61, 10.68, 11.2, 11.6, 11.2, 10.4, 9.6, 9.2, 8.18, 8.18, 7.81, 7.07, 6.7, 6.32, 5.95, 6.21, 5.84, 5.84, 4.74, 4.11, 4.19, 3.48, 4.74, 0.0, -7.15, -7.6, -8.49, -8.94, -9.39, -7.81, -6.64, -6.64, 9.83, -0.0, -0.0, 1.84, 5.77, 9.5, 10.99, 12.37, 16.87, 20.55, 21.12, 7.13, 0.0, 4.58, 8.53, 8.22, 6.45, 5.0, 5.0, 5.0, 3.39, 3.39, 3.39, 11.87, 11.87, 12.3, 12.14, 12.14, 13.01, 13.44, 13.44, 13.32, 13.75, 13.75, 14.16, 14.6, 14.6, 14.6, 14.55, 14.55, 14.55, 14.75, 14.75, 14.75, 14.75, 15.2, 15.2, 14.75, 14.75, 14.75, 14.3, 13.86, 13.86, 13.41, 13.41, 12.96, 12.52, 12.35, 11.91, 11.91, 11.91, 11.95, 11.61, 11.61, 11.61, 11.61, 11.61, 11.09, 11.2, 11.6, 11.2, 10.4, 9.6, 8.55, 8.18, 8.18, 7.44, 7.07, 6.7, 6.7, 6.32, 5.49, 5.49, 5.49, 4.43, 4.11, 3.79, 3.48, 3.47, 0.0, -4.74, -6.4, -8.05, -8.49, -8.94, 0.0, -6.95, -8.4, -9.39, -0.0, -0.0, -0.0, 6.71, 9.27, 8.85, 10.79, 14.33, 20.33, 18.66, 13.19, -6.42, -1.54, 6.17, 8.94, 9.3, 11.18, -11.62, -11.18, -10.73, -10.73, -10.73, 11.87, 11.87, 11.72, 12.14, 12.58, 12.58, 13.01, 13.44, 13.32, 13.75, 13.75, 14.6, 14.6, 14.6, 14.6, 14.55, 14.55, 14.55, 14.75, 14.75, 14.75, 14.75, 14.75, 14.75, 14.75, 14.75, 14.75, 14.3, 13.86, 13.86, 13.41, 13.41, 12.96, 12.79, 12.35, 11.91, 11.91, 11.46, 11.51, 11.18, 11.61, 11.61, 11.61, 10.68, 10.8, 11.2, 11.6, 11.2, 10.8, 9.3, 8.55, 8.18, 8.18, 7.44, 7.07, 6.7, 6.18, 5.84, 5.84, 5.49, 5.49, 4.74, 4.43, 3.79, 3.35, 3.22, 0.0, -3.47, -4.74, -5.95, -7.21, -8.49, 9.39, 6.95, -8.8, -9.39, -4.4, -0.0, -0.0, 6.2, 8.22, 9.08, 11.5, 14.27, 22.78, 20.53, -0.0, -11.06, -6.79, 2.69, 7.51, 7.27, 0.0, -11.18, -10.73, -10.28, -10.28, -10.28, 11.72, 11.72, 11.72, 12.58, 12.58, 12.58, 13.01, 13.44, 13.32, 13.75, 13.75, 14.6, 14.6, 14.6, 14.6, 14.6, 14.55, 14.55, 14.75, 14.75, 14.75, 14.75, 14.75, 14.75, 14.75, 14.75, 14.3, 14.3, 13.86, 13.41, 13.41, 12.96, 12.71, 12.79, 12.35, 11.91, 11.91, 11.46, 11.03, 11.18, 11.18, 11.18, 11.18, 10.4, 10.4, 10.4, 10.8, 10.8, 10.04, 9.3, 8.93, 8.55, 8.18, 7.81, 6.87, 6.52, 6.18, 6.18, 5.84, 5.84, 5.49, 4.29, 4.01, 3.72, 3.22, 2.99, 2.12, -2.12, -3.0, -5.06, -5.37, -3.6, 0.0, 6.32, 0.0, -9.39, -6.64, -0.0, 4.6, 7.59, 7.9, 9.3, 11.61, 19.65, 23.19, 20.91, 4.12, -11.12, -10.73, 6.64, 7.07, 4.71, -2.97, -7.81, -9.83, -9.83, -9.83, -9.83, 11.72, 11.72, 12.14, 12.14, 12.58, 12.58, 13.01, 13.01, 13.32, 13.32, 14.16, 14.16, 14.6, 14.6, 14.6, 14.6, 14.55, 14.55, 14.75, 15.2, 14.75, 14.75, 14.75, 14.75, 14.75, 14.3, 14.3, 14.3, 13.86, 13.41, 13.41, 12.96, 12.71, 12.27, 12.35, 11.91, 11.91, 11.03, 11.03, 10.6, 11.03, 11.03, 10.4, 10.4, 10.0, 10.0, 10.4, 9.67, 9.67, 9.3, 8.93, 8.55, 8.18, 7.56, 7.21, 6.87, 6.52, 6.52, 6.18, 5.37, 4.58, 4.58, 3.72, 3.47, 3.47, 2.8, 1.23, 0.0, -2.66, -4.29, -3.91, -3.15, -1.67, 0.0, 0.0, -8.94, -9.39, 9.83, 10.28, 10.73, 9.6, 9.3, 13.86, 18.76, 21.9, 20.56, -3.33, -9.8, -5.6, 11.18, 0.0, 0.0, -5.69, -7.6, -8.94, -9.21, -9.21, -9.21, 12.14, 12.14, 12.14, 12.14, 12.14, 12.58, 13.01, 13.44, 13.32, 13.32, 13.72, 14.16, 14.6, 14.6, 14.6, 14.6, 14.55, 14.55, 14.75, 15.2, 15.2, 14.75, 14.75, 14.75, 14.3, 14.3, 14.3, 13.86, 13.86, 13.41, 13.41, 12.71, 12.71, 12.27, 12.35, 11.91, 11.91, 11.03, 11.03, 10.6, 10.6, 10.4, 10.4, 10.0, 10.0, 9.6, 9.6, 8.93, 8.93, 8.93, 8.93, 8.55, 7.56, 7.56, 7.56, 7.21, 6.87, 6.32, 6.01, 5.37, 4.87, 4.58, 3.72, 3.72, 3.72, 3.0, 2.12, 0.0, 0.0, -3.2, -3.6, -4.37, -3.32, -1.75, -2.17, -4.71, -4.2, 0.0, 7.27, 9.2, 10.28, 10.73, 12.92, 16.8, 20.42, 18.85, -11.06, -8.85, -9.3, -11.18, -11.18, -10.73, -8.94, -8.94, -9.39, -8.38, -8.38, -8.38, 12.14, 12.14, 12.14, 12.14, 12.14, 12.14, 12.58, 13.01, 12.89, 13.28, 13.72, 14.16, 14.16, 14.6, 14.6, 14.6, 14.55, 14.55, 14.75, 15.2, 15.2, 15.2, 15.2, 14.75, 14.3, 14.3, 14.3, 13.86, 13.86, 13.41, 12.71, 12.71, 12.27, 12.27, 12.35, 11.91, 11.45, 11.03, 10.6, 10.6, 10.6, 10.0, 10.0, 10.0, 9.6, 9.6, 8.93, 8.93, 8.55, 8.55, 8.03, 8.03, 7.9, 7.56, 7.56, 6.64, 6.64, 6.32, 6.01, 5.69, 5.15, 4.42, 3.55, 3.33, 3.33, 2.64, 1.84, 0.95, 1.03, 0.0, -3.4, -5.69, -5.1, -5.36, -4.96, -4.0, -2.97, 0.0, 2.02, 2.49, 3.25, 9.6, 11.98, 14.3, 18.26, 18.61, -11.06, -9.66, -8.03, -10.14, -10.73, -10.73, -9.97, -9.39, -9.39, -9.21, -9.21, -9.21, 12.14, 12.14, 12.14, 12.14, 12.58, 12.58, 12.58, 12.46, 12.89, 13.28, 13.72, 14.16, 14.16, 14.6, 14.6, 14.6, 14.55, 14.55, 14.75, 14.75, 15.2, 15.2, 15.2, 14.75, 14.3, 14.3, 14.3, 13.86, 13.41, 13.15, 12.71, 12.27, 12.27, 12.27, 11.84, 11.45, 11.45, 11.03, 11.03, 10.6, 10.0, 10.0, 10.0, 10.0, 9.6, 9.6, 8.93, 8.55, 8.55, 8.55, 8.03, 7.27, 7.27, 7.56, 6.95, 6.95, 6.64, 6.32, 6.32, 6.01, 4.68, 4.42, 3.77, 3.55, 3.55, 3.55, 2.82, 1.96, 0.95, 0.0, 0.0, -4.22, -4.83, -5.69, -7.07, -4.0, 0.0, 0.0, 0.0, 2.02, 2.49, 6.17, 9.3, 12.3, 16.52, 18.33, 16.09, -11.99, -7.21, -8.06, -8.94, -10.28, -10.73, -10.28, -9.39, -9.39, -9.39, -9.39, 12.14, 12.14, 12.14, 12.14, 12.58, 12.58, 12.58, 12.89, 12.89, 13.28, 13.72, 13.72, 14.16, 14.6, 14.6, 14.6, 14.55, 14.55, 14.75, 15.2, 15.2, 15.2, 15.2, 14.75, 14.3, 14.3, 13.86, 13.86, 13.01, 12.71, 12.71, 12.27, 12.27, 11.84, 11.21, 11.45, 11.03, 11.03, 11.03, 10.6, 10.0, 10.0, 10.0, 9.6, 9.6, 8.93, 8.93, 8.55, 8.55, 8.03, 8.03, 6.95, 7.27, 6.95, 6.95, 6.95, 6.01, 6.01, 5.82, 5.53, 4.94, 4.68, 3.99, 3.4, 3.55, 3.55, 2.82, 1.73, 1.96, 1.84, 0.0, -3.4, -4.29, -5.37, -4.83, -4.0, 0.0, 0.0, 0.0, 0.0, 0.0, 4.6, 7.9, 10.73, 14.51, 17.8, 16.93, -14.3, -10.0, -7.28, -9.26, -9.83, -10.28, -10.28, -9.39, -9.39, -9.39, -9.39, 12.14, 12.14, 12.14, 12.14, 12.58, 12.58, 12.46, 12.89, 13.28, 13.28, 13.72, 13.72, 14.16, 14.16, 14.6, 14.16, 14.11, 14.55, 14.75, 14.75, 15.2, 15.2, 15.2, 15.2, 14.3, 13.86, 13.86, 13.59, 13.15, 12.71, 12.71, 12.27, 12.27, 11.21, 11.21, 11.21, 11.45, 11.03, 11.03, 10.0, 10.0, 10.0, 9.6, 9.6, 8.93, 8.93, 8.55, 8.55, 8.55, 7.27, 7.27, 6.95, 6.3, 6.95, 6.3, 6.01, 5.46, 5.46, 5.46, 5.2, 4.94, 4.94, 3.6, 2.67, 2.67, 3.2, 3.2, 2.67, 1.84, 1.96, 1.18, -1.84, -4.29, -5.06, -4.56, -3.15, -2.17, -2.28, -2.97, -2.39, 0.0, 2.1, 7.15, 10.73, 13.7, 16.62, 16.76, 14.61, -12.72, -7.67, -8.91, -9.83, -9.83, -9.83, -9.21, -9.39, -9.39, -9.39, 12.14, 12.14, 12.14, 12.14, 12.14, 12.46, 12.46, 12.46, 13.28, 13.28, 13.72, 13.72, 14.16, 14.16, 14.16, 14.16, 14.11, 14.11, 14.75, 14.75, 14.75, 15.2, 15.2, 14.75, 14.3, 13.86, 13.59, 13.15, 13.01, 12.71, 12.71, 12.27, 11.21, 11.21, 11.21, 11.21, 11.21, 11.03, 10.4, 10.4, 10.0, 10.0, 10.0, 8.93, 8.93, 8.93, 8.55, 8.55, 7.9, 7.27, 6.95, 6.3, 6.95, 6.95, 6.3, 5.46, 5.46, 5.2, 5.46, 5.2, 5.2, 4.5, 3.6, 2.83, 2.67, 2.67, 3.4, 2.67, 2.83, 2.99, 2.26, 0.0, 0.0, -5.37, -5.06, -4.83, -5.1, -5.21, -2.97, -2.39, 0.0, 3.98, 7.15, 9.88, 12.39, 15.94, 16.34, 15.17, 13.23, -12.07, -9.21, -9.26, -9.7, -9.26, -9.39, -8.94, -8.94, -8.94, 12.14, 12.14, 12.58, 12.58, 12.58, 12.46, 12.46, 12.83, 12.83, 13.28, 13.28, 13.72, 14.16, 14.16, 14.16, 14.16, 14.11, 14.11, 14.3, 14.75, 14.75, 14.75, 14.75, 14.75, 14.3, 13.86, 13.59, 13.15, 13.01, 12.58, 11.6, 11.62, 11.21, 11.21, 11.21, 10.79, 10.79, 9.97, 9.97, 10.0, 10.0, 10.0, 9.3, 8.93, 8.93, 8.93, 8.93, 7.9, 7.27, 7.27, 6.3, 6.3, 6.95, 6.95, 5.46, 5.46, 5.46, 5.2, 5.2, 5.2, 4.74, 4.5, 3.8, 2.83, 2.83, 2.67, 3.4, 3.6, 2.83, 2.99, 2.82, 3.0, 3.22, 7.6, -4.74, -4.22, -5.1, -5.21, -2.28, 0.0, 0.0, 3.39, 6.5, 9.08, 11.77, 14.51, 15.43, 14.73, 13.82, 12.35, 0.0, -9.83, -9.11, -8.67, -8.94, -8.94, -8.94, -8.94, 12.14, 12.14, 12.58, 12.58, 12.58, 12.46, 12.46, 12.83, 12.83, 13.28, 13.28, 13.72, 14.16, 14.16, 14.16, 14.16, 14.11, 14.11, 14.3, 14.75, 14.75, 14.75, 14.75, 14.75, 14.3, 13.86, 13.59, 13.15, 13.01, 12.58, 11.6, 11.62, 11.21, 11.21, 11.21, 10.79, 10.79, 9.97, 9.97, 10.0, 10.0, 10.0, 9.3, 8.93, 8.93, 8.93, 8.93, 7.9, 7.27, 7.27, 6.3, 6.3, 6.95, 6.95, 5.46, 5.46, 5.46, 5.2, 5.2, 5.2, 4.74, 4.5, 3.8, 2.83, 2.83, 2.67, 3.4, 3.6, 2.83, 2.99, 2.82, 3.0, 3.22, 7.6, -4.74, -4.22, -5.36, -5.21, -2.28, 0.0, 0.0, 3.39, 6.5, 8.75, 10.6, 12.63, 14.5, 14.65, 13.41, 12.96, 12.07, 9.39, 9.39, 9.39, 9.39, 9.39, 9.39, 9.39]}, {"header": {"dx": 0.06612293990616946, "dy": 0.0552356325346848, "nx": 98, "ny": 59, "la1": 35.046912555036876, "la2": 31.78801023549047, "lo1": -121.43107172385933, "lo2": -114.95102361305473, "refTime": "2026041012", "parameterCategory": 1, "parameterNumber": 3}, "data": [14.55, 14.75, 14.75, 14.75, 14.75, 14.75, 14.47, 14.47, 14.47, 14.75, 13.86, 11.62, 12.52, 11.18, 10.28, 7.59, -0.0, -0.0, -0.0, 7.27, 9.39, 8.91, 8.0, 7.15, 7.15, 5.63, 5.63, 6.64, 7.15, 8.3, 9.11, 8.94, 3.8, 2.12, 3.0, 4.43, 7.15, 6.4, 7.6, 8.05, 6.01, 0.0, -8.22, -7.19, -8.58, -7.6, -8.97, -8.99, -7.58, -2.0, 5.8, 8.53, 8.53, 8.24, 8.54, 8.54, 8.91, 8.23, 8.23, 6.9, 6.0, 6.51, 6.87, 7.54, 7.19, 7.79, 7.34, 6.2, 5.33, 4.51, 3.46, 3.68, 3.47, 3.32, 3.96, 3.44, 2.45, 0.0, -6.2, -5.6, -3.82, -3.65, -4.83, -6.32, -7.44, -8.94, -8.06, -6.01, -4.37, -3.32, -4.87, -6.33, -7.12, -7.12, -7.12, -6.56, -5.63, -5.29, 14.11, 14.75, 14.75, 14.75, 14.75, 14.75, 14.9, 14.9, 14.31, 14.75, 13.41, 12.96, 11.62, 10.73, 11.62, 0.0, -0.0, -0.0, -0.0, 4.4, 9.2, 10.28, 8.91, 7.44, 5.69, 5.1, 5.36, 5.36, 6.32, 8.0, 7.81, 8.06, 7.6, -0.0, -0.0, -0.0, 8.05, 8.05, 8.49, 8.94, 0.0, -11.62, -10.79, -11.9, -11.7, -11.88, -11.28, -10.41, -2.79, 4.98, 8.22, 8.22, 7.65, 7.14, 8.32, 8.54, 8.23, 7.69, 6.9, 6.9, 6.0, 5.8, 6.87, 7.54, 8.3, 8.44, 7.44, 6.9, 6.0, 4.36, 4.24, 3.68, 3.73, 1.61, 2.13, 3.14, 1.77, 0.0, -6.2, -5.6, -3.82, -3.65, -4.83, -6.32, -7.44, -8.94, -8.06, -6.01, -4.37, -3.32, -4.87, -6.33, -7.12, -7.12, -7.12, -6.56, -5.63, -5.29, 14.03, 14.75, 14.75, 14.75, 14.75, 14.75, 14.9, 14.75, 14.75, 14.3, 12.52, 10.28, 11.62, 11.62, 0.0, 0.0, 0.0, -0.0, -0.0, -0.0, 3.11, 7.59, 11.18, 9.75, 6.32, 6.01, 6.32, 5.36, 4.96, 8.48, 8.05, 7.01, 6.4, 5.37, 3.0, 0.0, 0.0, 0.0, 0.0, 0.0, -11.62, -13.59, -13.97, -14.88, -15.53, -15.14, -9.98, 0.0, 6.9, 7.59, 7.27, 6.97, 7.24, 7.51, 8.24, 8.05, 7.44, 6.9, 6.9, 5.55, 6.0, 6.3, 7.54, 9.17, 9.17, 9.17, 7.96, 6.96, 6.53, 5.11, 4.98, 3.81, 2.2, 0.0, 0.0, 0.0, 0.0, 0.0, -9.8, -4.98, -3.82, -4.2, -6.32, -6.32, -6.32, -8.67, -7.81, -7.07, -5.2, -5.63, -7.13, -8.31, -8.66, -8.66, -7.24, -5.35, -3.65, -3.81, 13.88, 14.3, 14.75, 14.75, 14.75, 14.75, 15.2, 14.75, 14.31, 13.15, 12.07, 10.73, 12.07, 11.18, 0.0, 0.0, 0.0, 0.0, -0.0, -0.0, 3.53, -0.0, 7.9, 11.62, 8.93, 6.95, 6.01, 5.36, 4.96, 7.6, 8.49, 8.94, 8.94, 6.32, 4.0, 1.84, 0.0, 0.0, -6.45, -11.16, -12.87, -17.26, -17.19, -14.91, -12.33, -6.14, 2.98, 6.98, 7.27, 6.5, 6.16, 7.28, 6.21, 8.01, 8.85, 8.44, 7.19, 6.0, 6.0, 4.58, 4.81, 5.8, 9.62, 10.41, 10.61, 9.42, 8.61, 7.51, 7.79, 6.79, 5.91, 4.4, 2.24, 0.0, -3.82, -5.4, -2.62, -2.63, -13.02, -6.9, -3.11, -4.4, -5.36, -5.44, -4.46, -6.32, -8.94, -6.63, -6.24, -8.05, -8.86, -8.72, -8.66, -6.67, -3.39, 0.0, -1.16, -1.94, 13.88, 14.3, 14.75, 14.75, 14.75, 14.75, 15.2, 14.75, 13.99, 13.86, 12.07, 10.73, 11.62, 11.18, 0.0, 0.0, 0.0, 0.0, 0.0, -0.0, -0.0, -0.0, 10.73, 11.62, 10.18, 9.3, 6.95, 6.64, 4.2, 6.01, 8.94, 9.33, 11.62, 8.22, 2.71, 0.0, 0.0, 0.0, -8.05, -12.96, -15.01, -12.33, -7.82, -2.63, 0.0, 4.48, 7.44, 6.5, 6.76, 7.02, 6.94, 6.94, 6.94, 6.94, 7.28, 6.87, 6.3, 6.0, 4.58, 4.58, 4.1, 9.17, 11.5, 10.8, 10.94, 9.88, 8.85, 8.85, 9.02, 7.74, 6.47, 5.09, 4.54, 1.51, -4.65, -8.73, -8.22, -6.97, -14.3, -7.69, -4.88, -5.63, -5.1, -4.71, -4.42, -7.6, -8.0, -6.95, -8.66, -10.25, -9.49, -8.95, -7.85, 0.0, 8.91, 1.84, -0.89, -2.28, 13.57, 14.3, 14.3, 14.75, 14.75, 14.75, 15.2, 13.99, 13.99, 13.86, 12.07, 10.28, 11.18, 0.0, 0.0, 0.0, 0.0, 0.0, -12.07, -12.52, -8.85, -0.0, 0.0, 9.17, 8.53, 8.53, 6.45, 5.0, 4.8, 4.8, 6.64, 9.39, 9.83, 0.0, 0.0, 0.0, 0.0, 0.0, -2.87, -15.02, -14.39, -7.93, 0.0, 2.06, 5.6, 7.28, 7.85, 7.02, 5.99, 6.7, 5.98, 6.21, 6.21, 6.44, 6.43, 5.27, 3.73, 3.73, 3.25, 3.25, 5.8, 11.62, 11.71, 11.45, 10.94, 9.88, 8.85, 9.17, 8.38, 7.26, 5.62, 5.67, 5.67, 4.93, 0.0, -9.8, -10.52, -10.52, -10.28, -7.24, -6.01, -7.44, -6.7, -5.37, -6.55, -8.49, -9.65, -10.12, -11.06, -10.75, -10.12, -8.24, 11.62, 6.79, 9.39, -1.84, -3.95, -4.68, 14.3, 14.3, 14.3, 14.75, 14.75, 14.75, 14.75, 14.75, 14.3, 13.86, 12.07, 6.95, 0.0, 0.0, 0.0, 0.0, 0.0, -8.85, -8.85, -12.52, -12.96, -14.3, -14.75, -13.99, -6.8, 0.0, 0.0, 0.0, 0.0, 4.8, 7.59, 7.81, 6.95, 0.0, 0.0, -2.28, -2.35, 0.0, 0.0, 0.0, -10.12, -12.96, 0.0, 3.25, 6.6, 8.3, 8.85, 8.24, 7.85, 6.44, 6.21, 5.98, 5.6, 3.96, 3.96, 1.61, 1.61, 1.43, 1.17, 1.29, 8.85, 12.07, 11.51, 11.3, 10.48, 9.42, 8.83, 7.78, 6.3, 4.81, 3.36, 3.36, 3.71, 3.32, 2.05, 0.0, -13.86, -10.28, -9.54, -9.13, -8.37, -8.33, -9.16, -9.6, -10.73, -11.23, -12.13, -11.82, -11.06, -9.8, -9.77, -8.85, 7.6, 7.6, 0.0, -4.44, -5.3, -5.51, 13.86, 14.3, 14.3, 14.3, 14.75, 14.75, 14.75, 14.75, 14.3, 13.41, 10.0, 6.95, 0.0, 0.0, 0.0, 0.0, -12.07, -9.17, -9.17, 0.0, 0.0, 0.0, -11.99, -15.18, -13.59, -12.65, -8.68, -7.2, 0.0, 9.48, 8.53, 3.82, 0.0, 0.0, 0.0, -2.06, -4.1, -1.84, 0.0, 0.0, -0.0, -0.0, -0.0, 0.0, 14.39, 12.79, 9.46, 9.08, 8.53, 8.3, 6.97, 4.48, 3.96, 3.44, 0.0, 0.0, 0.0, 0.0, 0.0, 0.0, 11.03, 11.18, 10.96, 9.97, 9.42, 8.87, 6.73, 4.1, 1.33, 1.04, 0.86, 0.84, 0.0, 0.0, 0.0, 0.0, 0.0, 0.0, -7.51, -10.12, -13.99, -12.07, -9.83, -10.7, -11.8, -11.88, -11.63, -11.2, -10.18, -9.02, -10.0, 7.21, 7.45, 8.49, -2.69, -4.5, -6.2, -6.45, 13.86, 14.3, 14.3, 14.3, 14.75, 14.75, 14.75, 14.75, 14.3, 12.96, 11.62, 8.22, 0.0, 0.0, 0.0, -12.52, -12.96, -13.41, -13.41, 0.0, 0.0, 9.48, 0.0, -10.12, -12.58, -9.3, -8.18, -13.86, 0.0, 0.0, -4.38, -4.81, -3.69, 0.0, 0.0, -1.91, -5.0, -5.0, -2.49, 0.0, -0.0, -0.0, -0.0, -0.0, 8.22, 11.18, 11.2, 10.12, 8.85, 8.24, 8.59, 7.54, 5.4, 1.71, 0.0, -1.91, -3.68, -2.82, -1.64, 2.82, 10.84, 10.52, 9.97, 9.67, 6.2, 4.52, 4.38, 1.29, -2.62, -2.16, -0.89, -0.74, -1.58, -1.63, -0.95, -1.48, 0.0, -1.71, -2.48, -6.66, -10.59, -14.23, -9.8, -9.62, -9.68, -10.53, -10.35, -9.62, -7.94, -6.95, 7.15, 6.26, 6.71, 0.0, -5.1, -5.38, -6.97, -7.08, 13.86, 13.86, 14.3, 14.3, 14.75, 14.75, 14.75, 14.75, 14.3, 12.96, 12.52, 5.8, 3.82, 0.0, 0.0, -9.48, -14.3, -14.75, -14.75, -13.41, -12.96, -12.96, -9.8, -12.79, -13.57, -11.03, -9.39, -10.73, -14.75, -10.12, -6.6, -9.17, -7.0, 0.0, 0.0, 0.0, -2.1, -2.97, -3.68, -12.96, -9.17, -4.1, -5.2, -0.0, 10.28, 11.18, 9.67, 8.53, 8.3, 9.76, 9.88, 9.08, 6.97, 5.77, 3.68, 0.0, -1.91, -5.98, -2.82, 9.67, 10.75, 9.97, 11.03, 11.09, 8.58, 6.2, 4.38, 1.17, -4.9, -6.45, -4.81, -3.78, -3.64, -3.38, -3.0, -4.43, -6.16, -5.64, -3.82, -4.53, -7.21, -11.7, -13.01, -7.71, -8.4, -8.55, -8.55, -7.96, -7.74, -6.32, 0.0, 0.0, -3.0, -6.32, -6.01, -6.42, -6.97, -5.76, 13.86, 13.86, 14.3, 14.75, 14.75, 14.75, 14.75, 14.75, 14.3, 13.41, 0.0, 0.0, 0.0, 0.0, 0.0, -6.4, -11.06, -13.99, -14.84, -16.82, -17.43, -17.43, -16.12, -13.99, -13.19, -12.96, -10.28, -10.28, -12.96, -9.8, -7.19, -5.8, 0.0, 0.0, -10.0, -2.93, 0.0, 0.0, 0.0, -13.86, -14.3, -13.41, 0.0, 0.0, 10.73, 10.28, 10.41, 10.38, 9.58, 10.27, 10.4, 10.18, 9.34, 8.64, 8.02, 7.9, 8.22, 0.0, -12.07, 11.4, 11.18, 10.78, 12.66, 12.81, 12.51, 11.64, 9.5, 7.69, 0.0, -7.73, -7.68, -5.8, -5.31, -4.81, -5.33, -7.13, -8.54, -8.53, -7.36, -6.0, -5.85, -8.28, -10.75, -11.12, -8.0, -6.21, -7.2, -7.51, -7.56, -6.01, -7.6, -8.23, -6.79, -5.36, -6.79, -7.18, -6.83, -7.07, 13.86, 13.86, 13.57, 14.75, 14.75, 14.75, 14.75, 14.75, 14.3, 0.0, 0.0, 0.0, 0.0, 0.0, 0.0, 0.0, 0.0, -5.48, -7.2, -6.69, -4.54, 0.0, 0.0, 0.0, 0.0, 0.0, 0.0, 2.54, 7.9, 0.0, 0.0, 0.0, 11.62, 0.0, -10.73, 0.0, 0.0, 12.07, -0.0, -13.41, 0.0, 9.48, 8.53, 10.0, 10.28, 9.39, 10.73, 10.73, 10.58, 10.58, 10.47, 10.92, 10.55, 10.8, 10.8, 10.87, 11.28, 8.85, 12.52, 8.82, 10.25, 12.58, 14.13, 14.47, 14.58, 14.42, 13.64, 12.37, 9.8, 6.0, 0.0, 0.0, -1.17, -3.14, -6.43, -8.73, -9.17, -9.62, -8.85, -7.44, -2.72, -4.24, -10.41, -10.43, -7.59, -6.64, -7.44, -8.4, -8.0, -8.0, -8.8, -9.6, -7.6, -6.32, -6.95, -6.98, -7.87, -0.0, 13.86, 13.15, 13.57, 13.99, 14.75, 14.75, 14.75, 14.3, 14.3, 0.0, 0.0, 0.0, 0.0, 0.0, 0.0, 0.0, 0.0, 0.0, -1.83, -1.48, 0.0, 1.21, 2.2, 3.53, 3.53, 3.53, 3.85, 4.24, 5.4, 3.11, 0.0, 0.0, 0.0, 0.0, 0.0, 6.95, 7.27, 5.0, -0.0, -0.0, 12.52, 12.52, 12.07, 10.28, 9.54, 8.67, 9.54, 9.97, 9.83, 9.83, 8.94, 8.82, 8.91, 8.8, 10.79, 10.8, 10.61, 11.06, 5.64, 7.89, 11.64, 13.36, 13.63, 13.41, 13.82, 14.27, 14.21, 14.3, 12.27, 11.6, 10.75, 9.06, 6.72, 3.92, 0.0, -7.51, -9.17, -6.7, -6.94, 0.0, 4.8, 0.0, -10.41, -13.01, -6.94, -5.6, -7.59, -8.8, -8.8, -7.6, -7.67, -8.22, -6.99, -6.91, -7.13, -7.41, -8.55, -0.0, 13.86, 12.39, 13.15, 13.57, 13.19, 12.79, 14.3, 14.3, 14.3, 0.0, 0.0, 0.0, 0.0, 0.0, 0.0, 0.0, 0.0, 0.0, 0.0, 0.0, 0.0, 0.0, 1.23, 2.57, 2.57, 2.57, 2.35, 2.56, 3.01, 1.83, 0.0, 0.0, 0.0, 0.0, 0.0, 6.95, 6.64, 7.27, -0.0, -0.0, -0.0, 7.9, 11.18, 11.18, 9.33, 9.33, 6.7, 6.95, 7.59, 9.6, 9.83, 10.73, 0.0, 0.0, 0.0, 0.0, 10.28, 5.4, 5.5, 9.33, 11.21, 13.41, 13.41, 12.88, 11.91, 11.91, 12.07, 11.76, 11.12, 9.62, 10.86, 10.43, 8.45, 5.86, 4.4, 3.53, 7.59, 4.6, 0.0, 0.0, 0.0, -5.7, -8.85, -13.28, -11.2, -9.48, -5.8, -3.39, -6.32, -5.37, -8.05, -7.06, -6.4, -6.79, -7.18, -7.14, -4.4, -5.37, 13.86, 12.39, 12.39, 10.12, 10.12, 12.79, 12.79, 10.12, 10.12, 0.0, 0.0, 0.0, 0.0, 0.0, 0.0, 0.0, 0.0, 0.0, 0.0, 0.0, 0.0, 0.0, 0.0, 1.34, 1.34, 1.37, 1.34, 1.3, 0.0, 0.0, 0.0, -2.45, 0.0, 0.0, 0.0, 0.0, 0.0, 9.39, 0.0, 0.0, 0.0, 0.0, 10.73, 10.73, 8.4, 8.48, 8.0, 7.6, 4.0, -0.0, 0.0, 0.0, -9.83, -8.49, -8.49, -3.6, -8.06, -3.45, 1.46, 9.62, 10.75, 10.79, 10.0, 10.0, 10.0, 9.96, 10.84, 11.18, 9.2, 8.22, 8.22, 7.12, 5.43, 2.6, 1.45, 6.95, 8.82, 6.42, 2.02, 0.0, -7.9, -9.58, -9.2, -9.96, -10.18, -11.87, -9.48, -6.2, -4.2, -6.64, -6.95, -7.28, -6.21, -6.08, -6.32, -4.37, -4.83, -4.83, 9.8, 12.39, 12.39, 10.12, 10.12, 10.12, 10.12, 12.79, 10.12, 10.12, 0.0, 0.0, 0.0, 0.0, 0.0, 0.0, -3.24, 0.0, 0.0, 0.0, 0.0, 0.0, 0.0, 1.5, 1.37, 1.37, 1.27, 0.0, 0.0, 0.0, -1.89, -2.15, -2.72, 0.0, 0.0, 0.0, 9.83, 9.83, 0.0, 0.0, 0.0, 0.0, 7.59, 9.83, 8.4, 8.06, 8.06, 7.2, 8.05, 8.49, 0.0, 0.0, 0.0, 0.0, 0.0, 0.0, -8.49, -6.95, 0.0, 8.22, 10.28, 9.6, 7.27, 6.95, 4.2, 2.97, 3.8, 9.54, 9.75, 7.59, 4.71, 1.52, 0.0, -2.08, 0.0, 10.0, 10.04, 10.12, 7.93, 4.38, 0.0, -10.41, -11.21, -11.4, -10.52, -9.26, -10.14, -9.54, -8.0, -7.15, -6.64, -6.13, -6.32, -5.3, -5.59, -5.36, -5.44, -5.44, 9.8, 12.39, 12.79, 9.8, 7.69, 7.93, 7.93, 10.43, 10.12, 6.4, 10.43, 0.0, 0.0, 0.0, 0.0, 0.0, -3.07, -3.24, 0.0, 0.0, 0.0, 0.0, 0.0, 1.46, 2.65, 1.34, 0.0, 0.0, 0.0, -1.65, -2.11, -4.12, -4.42, -4.52, -4.0, 0.0, 0.0, 0.0, 0.0, 0.0, -7.59, 0.0, 0.0, 8.49, 9.39, 8.0, 8.48, 8.49, 8.49, 8.94, 8.94, 9.39, 9.39, 6.64, 6.64, 0.0, 0.0, 0.0, 11.18, 11.62, 10.0, 10.28, 9.83, 8.4, 6.64, 5.69, -0.0, 3.8, 8.91, 4.05, 1.08, -2.22, -5.36, -5.98, 9.67, 12.66, 12.74, 11.06, 9.81, 8.43, 7.06, 1.96, -9.48, -12.27, -11.62, -9.83, -8.49, -8.49, -8.17, -7.37, -7.33, -5.69, -6.08, -6.39, -7.27, -6.64, -6.64, -6.64, 6.2, 9.8, 10.12, 10.12, 7.69, 7.69, 7.93, 7.93, 10.43, 10.43, 6.6, 6.8, 0.0, 0.0, 0.0, 0.0, 0.0, 0.0, 0.0, 0.0, -2.28, -2.0, 0.0, 1.68, 3.07, 1.46, 0.0, 0.0, 0.0, -1.93, -2.47, -4.91, -4.91, -5.09, -4.65, -3.8, -8.0, -7.27, -7.59, -9.2, -8.8, -9.39, 0.0, 0.0, 8.94, 9.39, 8.94, 8.94, 9.39, 9.39, 9.39, 8.8, 8.8, 6.95, 6.95, 4.4, 6.95, 9.2, 9.6, 7.9, 5.0, 7.27, 9.83, 8.91, 8.91, 8.06, 7.2, -7.6, -9.54, -5.0, -2.21, -1.57, -1.43, 5.48, 14.94, 15.47, 12.35, 9.81, 8.53, 7.36, 6.24, 4.52, 1.25, -12.52, -11.18, -8.94, -8.94, -8.49, -8.24, -9.63, -8.43, -6.01, -5.93, -7.32, -8.03, -7.76, -7.41, -7.41, 6.2, 9.8, 9.8, 7.93, 7.69, 7.69, 7.93, 7.93, 8.18, 8.18, 8.18, 4.81, 0.0, 0.0, 0.0, 0.0, 0.0, 0.0, 0.0, 0.0, -2.21, -4.42, -2.57, 0.0, 0.0, 0.0, 0.0, 0.0, 0.0, 0.0, 0.0, -3.51, -5.65, -5.51, -7.0, -6.44, -5.9, -6.64, -8.18, -9.3, -8.55, -7.27, 0.0, 0.0, 8.8, 8.8, 8.8, 9.39, 9.39, 9.39, 9.83, 6.95, 6.95, 6.95, 6.95, 7.27, 6.95, 7.59, 5.0, 5.0, 3.39, 4.6, 9.83, 8.06, 8.0, 7.6, 8.06, -8.0, -8.54, -7.02, -1.25, 2.57, 5.94, 7.14, 6.81, 2.72, 0.0, 0.0, 1.94, 2.72, 0.89, 0.95, -3.81, -12.52, -11.62, -10.28, -10.08, -11.02, -10.65, -10.73, -9.74, -7.81, -7.15, -7.54, -8.43, -8.18, -8.23, -8.23, 4.38, 4.38, 7.69, 7.69, 7.69, 7.69, 6.4, 6.4, 8.18, 8.18, 4.66, 4.81, 0.0, 0.0, 0.0, 0.0, 0.0, 0.0, 0.0, 0.0, 0.0, -3.16, -5.98, -7.8, -6.14, -2.72, 0.0, 0.0, 0.0, 0.0, 0.0, 0.0, -3.42, -6.47, -5.37, -6.8, -5.8, -5.2, -4.6, -3.8, -2.83, -1.54, 0.0, 2.97, 4.0, 5.95, 4.4, 6.95, 6.64, 9.39, 9.39, 9.39, 9.39, 9.39, 8.0, 6.64, 7.59, 5.46, 3.25, 0.0, 0.0, 0.0, 9.83, 8.4, 7.6, 6.79, 6.32, 9.39, 0.0, 0.0, 4.24, 6.85, 6.72, 4.27, 0.0, -5.71, -10.19, -10.52, -4.67, -1.78, -0.89, -0.89, -1.83, -13.01, -10.8, -11.18, -9.75, -8.55, -10.96, -10.73, -10.73, -10.92, -10.2, -8.95, -8.55, -8.99, -8.72, -8.72, 3.36, 3.36, 3.36, 6.2, 6.2, 6.2, 6.2, 6.4, 6.6, 3.69, 3.58, 3.69, 0.0, 0.0, 0.0, 0.0, 0.0, 0.0, -2.54, 0.0, 0.0, 0.0, -3.24, -5.98, -4.67, -4.12, 0.0, 0.0, 0.0, 0.0, 0.0, 0.0, 0.0, -2.87, -2.79, -4.54, -4.05, -5.11, -3.19, -2.49, -1.16, 0.0, 0.0, 1.09, 2.28, 2.6, 3.11, 4.4, 6.64, 6.64, 8.94, 8.94, 8.94, 9.39, 8.8, 6.32, 8.23, 7.27, 3.39, 0.0, 0.0, 0.0, 6.95, 4.4, 6.32, 6.32, 6.64, 9.83, 8.58, 8.82, 9.64, 8.83, 7.7, 4.46, -1.87, -9.0, -14.02, -13.59, -11.38, -8.46, -4.67, -1.83, 0.0, -14.3, -7.44, -10.4, 0.0, -6.95, -6.17, -9.55, -9.16, -11.87, -11.62, -9.21, -8.91, -8.58, -8.15, -8.15, 3.36, 3.36, 3.36, 6.2, 6.2, 6.2, 6.2, 6.4, 3.58, 3.69, 3.69, 3.69, 0.0, 0.0, 0.0, 0.0, 0.0, 0.0, -2.43, -2.34, 0.0, 0.0, 0.0, -2.65, -2.4, -2.22, 0.0, 0.0, 0.0, 0.0, 0.0, 0.0, 0.0, 0.0, -2.11, -2.11, -1.94, -1.72, -1.55, -1.23, -1.14, 0.0, 0.0, 0.0, 0.99, 1.14, 0.0, 0.0, 0.0, 0.0, 0.0, 8.49, 8.49, 8.94, 8.0, 8.8, 9.54, 9.6, 7.59, 0.0, -0.0, 2.97, 5.21, 6.64, 6.64, 8.91, 8.4, 9.83, 10.28, 11.18, 11.71, 12.09, 10.73, 6.97, -10.04, -12.94, -16.14, -16.39, -15.28, -12.52, -9.27, -5.18, -2.15, 0.0, -9.8, -11.62, -10.28, -7.81, -6.01, -7.9, -8.94, -10.88, -11.4, -8.94, -8.24, -7.89, -8.3, -8.3, 2.72, 2.72, 2.72, 5.15, 5.15, 5.15, 5.31, 2.81, 2.89, 2.98, 2.98, 2.98, 0.0, 0.0, 0.0, 0.0, 0.0, 0.0, 0.0, 0.0, 0.0, 0.0, 0.0, 0.0, -2.34, -2.16, -1.97, 0.0, 0.0, 0.0, 0.0, 0.0, 0.0, 0.0, 0.0, 0.0, 0.0, 0.0, 0.0, 0.0, 0.0, 0.0, 0.0, 0.0, 0.89, 0.94, 0.0, 0.0, 0.0, 0.0, 0.0, 8.49, 8.49, 8.49, 8.94, 8.94, 9.39, 9.97, 10.18, -0.0, -0.0, -0.0, 4.2, 8.0, 8.48, 9.11, 9.39, 9.39, 9.83, 8.4, 9.3, 11.87, 4.78, 3.69, -11.18, -9.83, -13.92, -15.36, -16.02, -15.59, -12.76, -9.67, -6.2, -3.65, -4.38, -8.53, -9.2, -7.33, -7.81, -6.97, -8.85, -7.9, -7.27, 0.0, -6.01, -7.6, -7.89, -7.89, 2.72, 2.72, 2.72, 5.15, 5.15, 5.15, 5.15, 2.81, 2.89, 2.98, 2.98, 3.07, 3.07, 0.0, 0.0, 0.0, 0.0, 0.0, 0.0, 0.0, 0.0, 0.0, 0.0, 0.0, -1.89, -2.05, -2.16, 0.0, 0.0, 0.0, 0.0, 0.0, 0.0, 0.0, 0.0, 0.0, 0.0, 0.0, 0.0, 0.0, 0.0, 0.0, 0.0, 0.0, 0.0, 0.0, 0.0, 0.0, 0.0, 0.0, 0.0, 6.01, 8.49, 8.49, 8.49, 8.49, 8.05, 8.94, 9.2, 10.28, -0.0, -0.0, -0.0, 8.06, 8.67, 9.21, 9.39, 9.83, 8.94, 8.8, -3.25, -4.24, -0.85, 0.99, 3.42, -14.3, -12.52, -11.99, -13.62, -14.68, -14.83, -11.9, -9.8, -8.49, -7.19, -8.22, -8.73, -8.0, -8.4, 0.0, -6.64, 0.0, 0.0, 0.0, -6.01, -6.79, -8.3, -8.3, 2.72, 2.72, 2.72, 5.15, 5.15, 5.15, 2.72, 2.81, 2.89, 2.98, 2.98, 2.98, 3.07, 3.07, 0.0, 0.0, 0.0, 0.0, 0.0, 0.0, 0.0, 0.0, 0.0, 0.0, -1.94, -1.94, -2.11, 0.0, 0.0, 0.0, 0.0, 0.0, 0.0, 0.0, 0.0, 0.0, 0.0, 0.0, 0.0, 0.0, 0.0, 0.0, 0.0, 0.0, 0.0, 0.0, 0.0, 0.0, 0.0, 0.0, 1.47, 0.0, 0.0, 5.69, 8.49, 8.49, 8.49, 7.6, 0.0, 0.0, 0.0, -8.49, -0.0, 8.91, 9.11, 9.11, 9.39, 9.39, 10.28, -10.28, -10.75, -7.43, -2.34, 1.7, 4.45, 4.66, 0.0, -15.77, -13.81, -11.27, -13.99, -13.75, -12.65, -11.2, -9.48, -8.59, -8.55, -8.67, -0.0, 7.44, 6.95, 0.0, -6.95, -2.97, -4.96, -5.36, -6.32, -6.32, 2.72, 2.72, 5.15, 5.15, 5.15, 5.15, 5.15, 2.81, 2.89, 2.89, 2.98, 2.98, 3.07, 2.57, 0.0, 0.0, 0.0, 0.0, 0.0, 0.0, 0.0, 0.0, 0.0, 0.0, 0.0, -2.0, -2.0, 0.0, 0.0, 0.0, 0.0, 0.0, 0.0, 0.0, 0.0, 0.0, 0.0, 0.0, 0.0, 0.0, 0.0, 0.0, 0.0, 0.0, 0.0, 0.0, 0.0, 0.0, 0.0, 0.0, 0.0, 0.0, 0.0, 0.0, 0.0, 0.0, 0.0, 0.0, 0.0, -6.32, -3.11, -3.25, 0.0, 9.39, 9.39, 8.94, 10.28, 10.73, 9.75, -10.28, -9.96, -7.19, -1.9, 0.85, 4.35, 7.62, 7.33, -1.34, -13.65, -11.76, -12.72, -14.17, -13.25, -11.76, -9.66, -8.38, -8.4, -8.49, 6.32, 7.6, 0.0, -10.28, -8.93, -7.27, -5.9, -5.63, -5.63, -5.63, 2.72, 2.72, 5.15, 5.15, 5.15, 5.15, 5.15, 2.72, 2.81, 2.89, 2.98, 2.98, 3.07, 2.5, 2.57, 0.0, 0.0, 0.0, 0.0, 0.0, 0.0, 0.0, 0.0, 0.0, 0.0, 0.0, 0.0, 0.0, 0.0, 0.0, 0.0, 0.0, 0.0, 0.0, 0.0, 0.0, 0.0, 0.0, 0.0, 0.0, 0.0, 0.0, 0.0, 0.0, 0.0, 0.0, 0.0, 0.0, 0.0, 0.0, 0.0, 0.0, 0.0, 0.0, 0.0, 0.0, 0.0, 0.0, 7.15, 0.0, -6.64, -2.28, 0.0, 8.67, 9.83, 9.39, 10.73, 9.75, 6.95, -10.28, -10.0, -8.22, -4.65, 0.0, 3.8, 6.72, 6.5, 3.14, -9.66, -11.58, -12.24, -13.91, -12.94, -11.41, -10.4, -9.48, -9.13, -0.0, -0.0, 0.0, -8.94, -7.27, -9.67, -10.4, -8.94, -6.44, -6.44, -6.44, 2.72, 2.72, 5.15, 5.15, 5.15, 5.15, 5.15, 2.72, 2.81, 2.81, 2.89, 2.98, 2.98, 2.5, 2.5, 2.5, 0.0, 0.0, 0.0, 0.0, 0.0, 0.0, 0.0, 0.0, 0.0, 0.0, 0.0, 0.0, 0.0, 0.0, 0.0, 0.0, 0.0, 0.0, 0.0, 0.0, 0.0, 0.0, 0.0, 0.0, 0.0, 0.0, 0.0, 0.0, 0.0, 0.0, 0.0, 0.0, 0.0, 0.0, 0.0, 0.0, 0.0, 0.0, 0.0, 0.0, 0.0, 0.0, 7.15, 5.37, 0.0, 0.0, 4.4, 8.91, 9.39, 11.18, 10.73, 10.28, 0.0, -10.28, -6.2, -6.21, -7.28, -6.21, -1.43, 0.0, 0.0, 1.61, 0.0, -11.18, -10.58, -13.37, -13.97, -12.18, -10.8, -11.03, -10.28, -6.01, -9.39, -8.8, -9.75, -9.3, -10.04, -11.2, -11.2, -9.66, -8.22, -8.22, 5.15, 5.15, 5.15, 5.15, 5.15, 5.15, 2.72, 2.81, 2.81, 2.81, 2.89, 2.98, 3.07, 2.57, 2.57, 2.5, 2.5, 0.0, 0.0, 0.0, 0.0, 0.0, 0.0, 0.0, 0.0, 0.0, 0.0, 0.0, 0.0, 0.0, 0.0, 0.0, 0.0, 0.0, 0.0, 0.0, 0.0, 0.0, 0.0, 0.0, 0.0, 0.0, 0.0, 0.0, 0.0, 1.39, 0.0, -1.64, -1.64, 0.0, -1.26, -1.26, 0.0, 0.0, 0.0, 0.0, 0.0, 0.0, 7.15, 5.37, -0.0, 0.0, 0.0, 9.39, 10.28, 10.28, 10.52, 10.28, 0.0, -10.28, -3.53, -3.44, -3.96, -8.54, -10.58, -10.33, -8.25, -4.07, 0.0, -10.8, -9.39, -12.66, -13.72, -12.64, -10.55, -9.96, -9.83, -10.28, -10.41, -10.0, -10.84, -11.03, -8.53, -11.6, -11.99, -10.37, -8.53, -8.53, 5.15, 5.15, 5.15, 5.15, 5.15, 5.15, 2.72, 2.81, 2.81, 2.81, 2.81, 2.98, 2.98, 3.07, 2.65, 2.57, 2.5, 2.5, 0.0, 0.0, 0.0, 0.0, 0.0, 0.0, 0.0, 0.0, 0.0, 0.0, 0.0, 0.0, 0.0, 0.0, 0.0, 0.0, 0.0, 0.0, 0.0, 0.0, 0.0, 0.0, 0.0, 0.0, 0.0, 0.0, 0.0, 0.0, 0.0, -2.2, -2.2, -2.06, -1.84, -1.47, -1.4, -1.49, -1.32, -1.32, -1.73, 0.0, 0.0, -0.0, -0.0, 0.0, 0.0, 9.39, 9.21, 9.39, 9.83, 8.93, 0.0, -8.8, -9.3, -4.75, -1.08, -3.81, -9.39, -12.23, -11.08, -8.61, -4.81, -4.38, -12.45, -12.22, -12.52, -12.33, -11.04, -11.5, -11.16, -10.79, -11.2, -11.2, -11.45, -8.85, 0.0, -7.19, -9.17, -9.17, -7.51, -7.51, 4.98, 4.98, 5.15, 5.15, 5.15, 5.15, 2.72, 2.81, 2.81, 2.89, 2.89, 2.81, 2.98, 2.98, 3.07, 2.57, 2.57, 2.57, 2.57, 2.57, 0.0, 0.0, 0.0, 0.0, 0.0, 0.0, 0.0, 0.0, 0.0, 0.0, 0.0, 0.0, 0.0, 0.0, 0.0, 0.0, 0.0, 0.0, 0.0, 0.0, 0.0, 0.0, 0.0, 0.0, -1.47, -2.02, -2.13, -2.35, -2.81, -2.63, -1.91, -1.54, -1.32, -1.32, -1.14, -1.3, -1.73, -2.4, -3.4, 0.0, 0.0, -8.49, 0.0, 8.48, 8.48, 8.24, 7.6, 0.0, 0.0, -2.49, -7.87, -7.59, -1.38, 0.87, -2.59, -9.18, -11.25, -9.49, -8.14, -6.47, -10.33, -16.05, -14.11, -13.03, -12.4, -11.96, -10.3, -7.82, -6.2, -5.8, 0.0, 0.0, 0.0, 2.45, 0.0, 0.0, 0.0, 0.0, 4.24, 4.24, 4.24, 5.15, 5.15, 5.15, 2.72, 2.81, 2.81, 2.89, 2.89, 2.89, 2.89, 3.07, 3.07, 2.57, 2.57, 2.65, 2.65, 2.65, 2.28, 0.0, 0.0, 0.0, 0.0, 0.0, 0.0, 0.0, 0.0, 0.0, 0.0, 0.0, 0.0, 0.0, 0.0, 0.0, 0.0, 0.0, 0.0, 0.0, 0.0, 0.0, 0.0, 0.0, -1.45, -2.71, -1.83, 0.0, 0.0, 0.0, -1.69, -1.32, -1.18, -1.32, -1.14, -1.19, -1.3, -1.73, -2.4, -3.2, -4.74, -7.6, 0.0, 8.49, 8.94, 8.06, 7.2, -9.39, -4.6, -3.98, -5.46, -10.28, -11.2, 0.0, 0.84, -3.39, -8.99, -8.85, -8.67, -7.82, -7.6, -10.61, -14.18, -12.7, -12.29, -11.7, -10.61, -9.23, -5.31, -2.54, 0.0, 3.96, 3.96, 5.6, 2.06, 2.06, 1.71, 1.71, 4.24, 4.24, 4.24, 4.38, 4.38, 5.15, 2.72, 2.81, 2.81, 2.89, 2.89, 2.89, 2.89, 2.89, 3.07, 3.07, 2.57, 2.57, 2.57, 2.65, 0.0, 0.0, 0.0, 0.0, 0.0, 0.0, 0.0, 0.0, 0.0, 0.0, 0.0, 0.0, 0.0, 0.0, 0.0, 0.0, 0.0, 0.0, 0.0, 0.0, 0.0, 0.0, 0.0, 0.0, 0.0, -1.44, 0.0, 0.0, 0.0, 0.0, -1.33, -1.26, -1.47, -1.32, -1.4, -1.23, -1.14, -1.3, -1.52, -1.52, -1.84, 0.0, 0.0, 5.69, 8.49, 7.81, 7.63, 0.0, -5.46, -2.6, 0.0, -0.0, -11.62, -8.58, -3.29, -1.75, -4.34, -12.07, -11.45, -6.96, -4.66, -4.23, -5.09, -5.23, -6.31, -7.4, -8.56, -7.92, -4.52, -2.13, 0.0, 2.93, 6.7, 3.04, 2.45, 2.06, 1.64, 1.64, 3.68, 3.68, 4.24, 4.24, 4.38, 4.38, 2.72, 2.81, 2.81, 2.89, 0.0, 0.0, 2.89, 2.89, 2.98, 3.07, 2.57, 2.57, 2.57, 0.0, 0.0, 0.0, 0.0, 0.0, 0.0, 0.0, 0.0, 0.0, 0.0, 0.0, 0.0, 0.0, 0.0, 0.0, 0.0, 0.0, 0.0, 0.0, 0.0, 0.0, 0.0, 0.0, 0.0, 0.0, 0.0, 0.0, 0.0, 0.0, 0.0, 0.0, -1.22, -1.33, -1.33, -1.47, -1.58, -1.4, -1.32, -1.23, -1.05, -1.14, -3.4, 0.0, 0.0, 6.01, 7.6, 6.32, 5.69, 3.6, -9.39, 0.0, 6.95, 8.22, -8.53, -9.97, -8.0, -3.35, 1.01, 0.0, -13.41, -6.2, -4.66, -4.6, -2.72, -3.04, -1.69, -2.3, -2.36, -2.28, 0.0, 0.0, 1.98, 4.48, 4.48, 2.37, 0.0, 1.98, 1.5, 1.5, 3.68, 3.68, 3.68, 4.24, 4.38, 4.38, 2.72, 2.81, 2.89, 0.0, 0.0, 0.0, 0.0, 0.0, 2.89, 2.98, 2.98, 2.5, 0.0, 0.0, 0.0, 0.0, 0.0, 0.0, 0.0, 0.0, 0.0, 0.0, 0.0, 0.0, 0.0, 0.0, 0.0, 0.0, 0.0, 0.0, 0.0, 0.0, 0.0, 0.0, 0.0, 0.0, 0.0, 0.0, 0.0, 0.0, 0.0, 0.0, -1.66, -1.61, -1.33, -1.45, -1.33, -1.47, -1.4, -1.49, -1.4, -1.32, -1.23, -0.88, -0.96, 0.0, 0.0, 8.05, 8.49, 3.8, 2.4, -0.0, -0.0, -0.0, 0.0, 0.0, -2.13, -6.36, -7.32, -2.53, 3.37, 5.65, 3.16, -1.2, -6.37, -8.11, -6.36, -2.96, 0.0, 0.0, 0.0, 0.0, 1.13, 2.37, 2.52, 2.71, 2.82, 1.44, 0.0, 0.0, 0.0, 0.0, 3.68, 3.68, 3.68, 3.68, 4.38, 4.38, 2.35, 2.81, 2.89, 0.0, 0.0, 0.0, 0.0, 0.0, 2.89, 2.98, 2.98, 0.0, 0.0, 0.0, 0.0, 0.0, 0.0, 0.0, 0.0, 0.0, 0.0, 0.0, 0.0, 0.0, 0.0, 0.0, 0.0, 0.0, 0.0, 0.0, 0.0, 0.0, 0.0, 0.0, 0.0, 0.0, 0.0, 0.0, 0.0, 0.0, 0.0, -1.61, -1.66, -1.61, -1.44, -1.28, -1.39, -1.33, -1.4, -2.99, -2.82, -2.66, -2.49, -2.16, -1.7, -1.05, 0.0, 0.0, 8.05, -0.0, -0.0, -0.0, -0.0, -0.0, -0.0, 0.0, 0.0, 0.0, -2.56, -1.89, 0.89, 4.25, 2.5, 0.0, -5.28, -8.4, -9.22, -4.52, 0.0, 0.0, 0.0, 0.0, 0.0, 0.93, 1.01, 1.11, 1.28, 0.0, 0.0, 0.0, 0.0, 0.0, 3.14, 3.14, 3.68, 3.68, 3.81, 4.38, 2.35, 2.35, 2.89, 2.89, 0.0, 0.0, 0.0, 2.98, 2.89, 2.89, 2.98, 0.0, 0.0, 0.0, 0.0, 0.0, 0.0, 0.0, 0.0, 0.0, 0.0, 0.0, 0.0, 0.0, 0.0, 0.0, 0.0, 0.0, 0.0, 0.0, 0.0, 0.0, 0.0, 0.0, 0.0, 0.0, 0.0, 0.0, 0.0, 0.0, -1.44, -1.77, -1.83, -1.83, -1.71, -1.58, -1.45, -2.7, -2.83, -2.54, -2.82, -2.82, -2.49, -2.32, -2.16, -2.4, 0.0, 0.0, 0.0, 0.0, -0.0, 3.8, 4.0, -0.0, -0.0, 10.28, 6.94, 2.64, -0.82, -3.47, -4.05, -3.41, -3.25, -3.01, -3.45, -5.48, -10.73, -9.17, -2.45, -1.38, -1.04, -0.93, 0.0, 0.0, 0.0, 0.0, 0.0, 0.0, 0.0, 0.0, -1.33, -1.5, 3.14, 3.14, 3.25, 3.68, 3.81, 3.81, 2.35, 2.35, 2.89, 2.89, 2.98, 2.98, 2.98, 2.98, 2.98, 2.89, 2.89, 0.0, 0.0, 0.0, 0.0, 0.0, 0.0, 0.0, 0.0, 0.0, 0.0, 0.0, 0.0, 0.0, 0.0, 0.0, 0.0, 0.0, 0.0, 0.0, 0.0, 0.0, 0.0, 0.0, 0.0, 0.0, 0.0, 0.0, 1.39, 0.0, -1.44, -3.44, -3.68, -3.56, -3.44, -3.19, -2.95, -3.11, -2.83, -2.69, -2.82, -2.82, -3.0, -2.8, -2.99, -2.4, -3.6, 0.0, 0.0, 0.0, -0.0, -0.0, -0.0, -0.0, -0.0, 7.27, 5.4, 0.92, 0.0, -1.68, -5.99, -7.89, -7.39, -5.16, -2.37, -1.08, -5.31, -11.16, -7.19, -4.1, -2.72, -1.16, -1.16, 0.0, 0.0, 0.0, 0.0, 0.0, 0.0, -1.09, -1.2, -1.33, 3.14, 3.14, 3.14, 3.25, 3.81, 3.81, 4.52, 2.35, 2.43, 2.89, 2.98, 2.98, 2.98, 2.98, 2.98, 2.89, 2.89, 0.0, 0.0, 0.0, 0.0, 0.0, 0.0, 0.0, 0.0, 0.0, 0.0, 0.0, 0.0, 0.0, 0.0, 0.0, 0.0, 0.0, 0.0, 0.0, 0.0, 0.0, 0.0, 0.0, 0.0, 0.0, 0.0, 0.0, 0.0, 0.0, -1.72, -4.52, -4.52, -4.38, -3.56, -3.32, -2.95, -3.25, -2.83, -3.15, -2.99, -3.4, -3.2, -3.0, -2.8, -2.99, -2.98, -5.69, 0.0, 0.0, 0.0, -0.0, -0.0, 0.0, -0.0, -0.0, -8.22, 0.0, 2.21, 3.24, 0.0, -5.81, -7.95, -5.41, -2.43, -0.92, -3.2, -10.12, -13.41, -7.19, -2.13, -1.71, 0.0, 0.0, 0.0, 0.0, 0.0, -1.09, -1.09, -1.2, -1.09, -1.2, 3.14, 3.14, 3.14, 3.25, 3.68, 3.81, 3.81, 2.35, 2.35, 2.43, 2.43, 2.89, 2.98, 2.98, 2.89, 2.89, 2.89, 0.0, 0.0, 0.0, 0.0, 0.0, 0.0, 0.0, 0.0, 0.0, 0.0, 0.0, 0.0, 0.0, 0.0, 0.0, 0.0, 0.0, 0.0, 0.0, 0.0, 0.0, 0.0, 0.0, 0.0, -2.15, -2.02, -2.06, -3.68, -2.13, -2.15, -2.57, -2.43, -4.52, -4.38, -3.96, -3.39, -3.11, -2.83, -3.15, -4.14, -3.4, -3.4, -3.2, -3.0, -2.99, -3.4, -5.06, -5.37, 0.0, -7.6, -0.0, -0.0, -0.0, -0.0, -8.0, -10.18, -6.2, 0.0, 4.3, 4.85, 0.0, -5.62, -7.24, -5.2, -1.55, 0.0, 0.0, -12.96, -5.6, 0.0, 0.0, 0.0, 0.0, 0.0, -1.44, -1.28, -1.2, -1.09, -1.2, -1.2, -1.2, 2.72, 2.72, 3.14, 3.14, 3.25, 3.68, 3.81, 3.93, 3.93, 2.35, 2.43, 2.43, 2.89, 2.89, 2.89, 2.89, 2.89, 2.43, 0.0, 0.0, 0.0, 0.0, 0.0, 0.0, 0.0, 0.0, 0.0, 0.0, 0.0, 0.0, 0.0, 0.0, 0.0, 0.0, 0.0, 0.0, 0.0, 0.0, 0.0, 0.0, -2.02, -2.02, -1.96, -1.77, -3.32, -3.68, -2.09, -2.5, -2.35, -4.38, -4.24, -3.82, -3.11, -2.97, -2.83, -3.8, -3.6, -3.6, -3.6, -4.22, -3.2, -3.45, -3.49, -3.4, -5.37, 0.0, 0.0, 0.0, 5.06, 5.69, -0.0, -8.06, -10.28, -7.87, -6.45, -1.48, 1.58, 4.22, 1.97, -5.4, -10.6, -2.28, 0.0, 0.0, -3.04, -3.82, -2.28, -1.91, -1.64, -1.44, -1.44, -2.82, -2.52, -2.62, -2.37, -1.33, -1.33, -1.33, 2.72, 2.72, 4.55, 4.55, 3.25, 3.68, 3.81, 3.81, 3.81, 4.52, 4.52, 2.43, 2.43, 2.43, 2.43, 2.43, 2.43, 2.43, 0.0, 0.0, 0.0, 0.0, 0.0, 0.0, 0.0, 0.0, 0.0, 0.0, 0.0, 0.0, 0.0, 0.0, 0.0, 0.0, 0.0, 0.0, 0.0, 0.0, 0.0, -1.9, -1.96, -1.96, -1.9, -3.32, -3.19, -3.56, -2.02, -2.02, -1.9, -3.44, -3.32, -3.53, -2.97, -2.97, -2.83, -4.0, -3.6, -3.6, -4.46, -4.46, -4.75, -4.75, -4.74, -5.37, -5.37, 0.0, 0.0, 8.05, 6.4, 5.37, -0.0, -8.06, -9.39, -9.55, -8.59, -7.41, -3.47, 1.63, 5.88, 5.65, 4.5, 4.5, 1.26, -1.25, -4.71, -4.81, -5.4, -3.82, -4.24, -3.82, -3.82, -4.08, -3.82, -3.96, -2.62, -2.62, -2.62, -2.62, 3.96, 3.96, 4.1, 4.55, 4.71, 3.25, 3.36, 3.81, 3.93, 3.93, 4.52, 4.66, 2.43, 2.43, 2.43, 2.43, 2.43, 2.43, 0.0, 0.0, 0.0, 0.0, 0.0, 0.0, 0.0, 0.0, 0.0, 0.0, 0.0, 0.0, 0.0, 0.0, 0.0, 0.0, 0.0, 0.0, 0.0, 0.0, -1.9, -1.9, -1.9, -1.9, -1.83, -3.19, -3.07, -3.32, -3.68, -3.68, -3.68, -3.32, -3.07, -2.82, -4.0, -4.0, -3.8, -3.8, -3.6, -3.6, -4.22, -4.46, -5.03, -4.75, -4.47, -4.43, -3.6, 0.0, 0.0, 7.15, 5.37, -0.0, -8.94, -8.49, -9.39, -9.75, -8.93, -7.9, -3.96, 0.0, 4.04, 9.13, 11.54, 10.34, 5.99, 0.0, -5.81, -9.48, -8.44, -6.87, -6.94, -5.86, -6.21, -4.72, -5.08, -4.9, -4.24, -4.08, -4.08, -4.08, 3.96, 3.96, 4.1, 4.55, 4.55, 4.71, 3.25, 3.81, 3.93, 3.93, 4.52, 4.52, 2.43, 2.43, 2.43, 2.43, 2.43, 2.43, 0.0, 0.0, 0.0, 0.0, 0.0, 0.0, 0.0, 0.0, 0.0, 0.0, 0.0, 0.0, 0.0, 0.0, 0.0, 0.0, 0.0, 0.0, 0.0, -1.83, -1.9, -1.83, -1.83, -1.83, -1.83, -3.19, -3.07, -3.82, -4.1, -3.56, -3.56, -4.75, -4.4, -3.87, -4.0, -3.8, -3.6, -3.6, -3.6, -4.46, -4.22, -4.22, -4.22, -4.75, -4.47, -4.19, -3.49, -3.8, 0.0, 0.0, 0.0, 0.0, -8.05, -8.49, -8.94, -9.13, -8.23, -3.39, 0.0, 1.29, 5.14, 9.27, 12.23, 12.21, 9.41, 6.5, 0.0, -11.64, -10.99, -9.48, -9.17, -8.44, -7.24, -6.2, -6.45, -7.24, -6.16, -5.2, -5.2, -5.2, 3.96, 3.96, 4.1, 4.55, 4.71, 4.71, 3.25, 3.36, 3.81, 3.93, 3.93, 3.93, 2.43, 2.43, 2.43, 2.43, 2.43, 2.43, 0.0, 0.0, 0.0, 0.0, 0.0, 0.0, 0.0, 0.0, 0.0, 0.0, 0.0, 0.0, 0.0, 0.0, 0.0, 0.0, 0.0, 0.0, -1.77, -1.77, -1.83, -1.83, -1.83, -1.83, -3.56, -3.32, -3.07, -3.82, -3.96, -5.6, -4.93, -4.58, -4.23, -3.87, -4.0, -3.8, -3.6, -3.6, -4.46, -4.22, -3.99, -4.22, -3.97, -4.47, -4.19, -3.91, -4.11, -3.8, 0.0, 0.0, 0.0, 0.0, -8.49, -8.49, -8.94, -9.39, -7.27, 0.0, 6.2, 6.94, 8.54, 10.23, 9.62, 9.05, 9.36, 9.89, 8.14, 0.0, -11.88, -11.42, -10.03, -9.08, -8.22, -8.22, -7.36, -7.36, -7.9, -6.71, -6.71, -6.71, 3.96, 3.96, 4.1, 4.55, 4.55, 4.71, 3.36, 3.36, 3.81, 3.81, 3.93, 3.93, 2.02, 2.43, 2.43, 2.43, 2.43, 2.43, 0.0, 0.0, 0.0, 0.0, 0.0, 0.0, 0.0, 0.0, 0.0, 0.0, 0.0, 0.0, 0.0, 0.0, 0.0, 0.0, 0.0, -1.98, -1.71, -1.77, -1.77, -1.77, -1.77, -3.44, -3.44, -3.32, -3.07, -5.4, -5.6, -5.6, -5.4, -5.0, -4.8, -4.6, -4.2, -4.0, -4.46, -4.22, -4.22, -4.22, -3.77, -4.22, -4.87, -4.74, -3.91, -3.35, -3.48, -3.6, 0.0, 0.0, 0.0, 0.0, -0.0, -6.01, -8.0, -6.64, 0.0, 0.0, 8.93, 10.79, 10.8, 10.01, 8.23, 7.0, 9.98, 11.5, 10.91, 7.03, -3.24, -11.8, -10.25, -9.66, -10.04, -9.08, -7.9, -8.38, -7.9, -7.9, -7.9, -7.9, 3.96, 3.96, 4.1, 4.55, 4.55, 4.71, 3.36, 3.36, 3.81, 3.93, 3.93, 3.93, 2.09, 2.09, 2.43, 2.43, 2.43, 2.43, 0.0, 0.0, 0.0, 0.0, 0.0, 0.0, 0.0, 0.0, 0.0, 0.0, 0.0, 0.0, 0.0, 0.0, 0.0, 0.0, 0.0, -1.98, -1.98, -1.71, -1.71, -1.77, -3.44, -3.44, -3.44, -3.32, -4.58, -5.6, -5.8, -5.6, -5.2, -4.8, -4.6, -5.46, -5.46, -5.21, -4.71, -4.46, -4.22, -3.97, -3.55, -4.87, -4.87, -4.74, -4.11, -3.35, -3.48, -4.74, -6.71, -0.0, -0.0, -0.0, -0.0, -0.0, -5.21, -6.64, -6.64, 0.0, 10.28, 10.73, 11.02, 10.09, 8.15, 7.69, 8.83, 10.12, 9.87, 7.31, -11.88, -11.62, -10.68, -8.53, -8.22, -9.67, -10.0, -10.0, -10.0, -10.18, -10.18, -10.18, 3.96, 3.96, 4.1, 4.55, 4.55, 3.25, 3.36, 3.36, 3.81, 3.93, 3.93, 2.02, 2.09, 2.09, 2.09, 2.43, 2.43, 2.43, 0.0, 0.0, 0.0, 0.0, 0.0, 0.0, 0.0, 0.0, 0.0, 0.0, 0.0, 0.0, 0.0, 0.0, 0.0, 0.0, -2.06, -1.98, -1.98, -1.98, -1.71, -3.32, -3.32, -3.32, -3.32, -3.32, -4.75, -5.6, -5.8, -5.6, -5.2, -4.8, -5.7, -5.46, -5.46, -4.96, -4.71, -4.46, -4.46, -4.22, -4.58, -4.58, -4.58, -4.43, -4.11, -3.79, -3.48, -5.21, -6.26, -4.74, -3.2, -0.0, -0.0, -0.0, -9.39, -6.95, -4.2, -0.0, 9.83, 9.83, 10.73, 8.94, 7.73, 8.85, 7.19, 6.27, 5.3, 2.07, -6.6, -8.03, -9.26, -8.23, -6.71, -6.2, 0.0, -0.0, -0.0, -0.0, -0.0, -0.0, 3.96, 3.96, 4.39, 4.55, 3.14, 3.14, 3.25, 3.36, 3.81, 3.93, 3.93, 2.09, 2.09, 2.09, 2.09, 2.43, 2.43, 2.43, 0.0, 0.0, 0.0, 0.0, 0.0, 0.0, 0.0, 0.0, 0.0, 0.0, 0.0, 0.0, 0.0, 0.0, 0.0, -2.13, -2.06, -1.98, -1.98, -1.91, -1.64, -3.19, -3.32, -3.32, -3.32, -4.58, -5.4, -5.6, -5.8, -5.6, -5.4, -6.2, -5.7, -5.46, -5.46, -4.96, -4.71, -4.46, -5.15, -4.87, -4.87, -4.58, -4.58, -4.74, -4.43, -3.79, -4.19, -4.29, -6.71, -5.21, -4.74, -3.97, -2.4, -0.0, 0.0, -6.95, -4.4, -0.0, 8.8, 9.83, 10.28, 9.3, 8.22, 7.26, 4.93, 1.02, -0.81, -1.08, 15.65, -1.58, -5.1, -8.06, -5.63, -7.27, -10.73, -0.0, -0.0, -0.0, -0.0, -0.0, 4.39, 4.39, 4.39, 3.14, 3.14, 3.14, 3.25, 3.36, 3.81, 3.93, 3.93, 2.09, 2.09, 2.09, 2.09, 2.09, 2.43, 2.43, 0.0, 0.0, 0.0, 0.0, 0.0, 0.0, 0.0, 0.0, 0.0, 0.0, 0.0, 0.0, 0.0, 0.0, -2.54, -2.13, -2.06, -1.98, -1.98, -1.91, -3.68, -3.19, -3.19, -3.19, -3.19, -5.2, -5.2, -5.2, -5.4, -5.4, -6.7, -6.2, -5.95, -5.7, -5.46, -5.21, -5.72, -5.44, -5.15, -5.15, -4.87, -4.87, -4.58, -5.15, -4.81, -4.46, -4.84, -4.98, -6.36, -6.36, -6.0, -5.06, -5.37, -7.2, -8.49, -6.32, -9.83, -0.0, 6.64, 9.83, 9.2, 7.59, 7.9, 6.97, 3.32, -0.85, -1.6, -2.09, 16.48, 6.67, -0.0, -6.64, -4.71, -7.07, -8.91, -5.21, -0.0, -0.0, -0.0, -0.0, 4.39, 4.39, 3.04, 3.04, 3.14, 3.14, 3.25, 3.25, 3.81, 3.81, 2.02, 2.02, 2.09, 2.09, 2.09, 2.09, 2.43, 2.43, 0.0, 0.0, 0.0, 0.0, 0.0, 0.0, 0.0, 0.0, 0.0, 0.0, 0.0, 0.0, 0.0, 0.0, -2.54, -2.45, -2.06, -1.98, -1.98, -3.68, -3.68, -3.53, -3.68, -3.68, -5.2, -5.2, -5.0, -5.0, -5.2, -6.45, -6.45, -6.2, -5.95, -5.7, -5.46, -6.3, -6.01, -5.72, -5.44, -5.44, -5.15, -5.37, -5.49, -5.49, -5.58, -5.21, -5.21, -5.6, -6.14, -6.26, -6.64, -5.72, -6.52, -7.89, -8.33, -8.05, -8.05, -0.0, -0.0, 0.0, 0.0, 0.0, 4.8, 6.2, 0.0, 0.85, 0.0, 0.0, 16.66, 9.8, 11.2, 0.0, -10.73, -9.39, -5.69, -3.8, -0.0, -1.84, -1.84, -1.84, 3.04, 3.04, 3.04, 3.04, 3.04, 3.14, 3.25, 3.36, 3.81, 3.81, 1.96, 2.02, 2.09, 2.09, 2.09, 2.09, 2.43, 2.43, 0.0, 0.0, 0.0, 0.0, 0.0, 0.0, 0.0, 0.0, 0.0, 0.0, 0.0, 0.0, 0.0, -2.54, -2.54, -2.45, -2.06, -1.98, -1.98, -3.68, -3.68, -3.53, -3.53, -5.2, -5.2, -5.0, -5.0, -4.8, -4.8, -5.95, -5.95, -5.95, -5.95, -5.7, -6.3, -6.3, -6.3, -6.01, -5.72, -6.32, -6.01, -5.37, -5.84, -5.49, -5.58, -5.58, -5.58, -6.0, -6.36, -6.26, -7.15, -6.4, -7.2, -7.28, -8.3, -8.77, -8.67, -7.07, -8.4, -9.83, -7.27, -4.6, 0.0, 0.0, 1.08, 2.52, 2.45, 3.77, 11.06, 8.85, 6.97, -0.0, -0.0, -0.0, -0.0, -0.0, -0.0, -1.4, -1.4, -1.4, 3.04, 3.04, 3.04, 3.04, 3.04, 3.04, 3.14, 3.25, 3.68, 1.9, 1.96, 2.02, 2.02, 2.09, 2.09, 2.09, 2.43, 2.43, 0.0, 0.0, 0.0, 0.0, 0.0, 0.0, 0.0, 0.0, 0.0, 0.0, 0.0, 0.0, -2.54, -2.54, -2.45, -2.45, -2.06, -1.98, -3.82, -3.68, -3.53, -3.53, -3.53, -5.0, -5.0, -5.0, -4.8, -4.8, -5.95, -5.95, -5.7, -5.7, -6.42, -6.42, -6.58, -6.3, -6.3, -6.64, -6.64, -6.32, -6.01, -5.69, -6.18, -6.18, -6.21, -5.82, -5.82, -6.16, -6.45, -6.64, -6.17, -7.6, -6.8, -5.69, -6.79, -7.15, -7.44, -8.0, -8.91, -9.83, -10.08, -9.97, -9.75, -4.8, -1.5, 0.0, 1.59, 2.48, 11.06, 7.24, 6.42, 1.69, -0.0, -0.0, 2.49, -0.0, -0.0, -1.84, -1.84, -1.84, 3.04, 3.04, 3.04, 3.04, 3.14, 3.14, 3.14, 3.56, 3.68, 1.9, 1.96, 2.02, 2.02, 2.09, 2.09, 2.09, 2.43, 2.43, 0.0, 0.0, 0.0, 0.0, 0.0, 0.0, 0.0, 0.0, 0.0, 0.0, 0.0, -2.63, -2.54, -2.45, -2.45, -2.45, -2.37, -3.82, -3.82, -3.68, -3.68, -3.53, -5.0, -5.0, -5.0, -5.0, -4.8, -4.8, -5.95, -5.7, -5.7, -5.7, -6.42, -7.27, -7.27, -6.3, -6.95, -6.95, -6.64, -6.32, -6.32, -6.01, -6.55, -6.18, -6.6, -6.21, -6.21, -6.21, -6.57, -6.88, -6.64, -7.15, -7.6, -6.32, -6.44, -5.69, -4.71, -8.0, -9.39, -9.83, -10.28, -10.08, -9.97, -8.23, -6.2, -4.1, -0.87, 0.0, 0.0, 6.0, 6.01, 2.69, -0.0, -0.0, -0.0, -0.0, -0.0, -0.0, -0.0, -0.0, 3.04, 3.04, 3.04, 3.04, 3.14, 3.14, 3.14, 3.68, 3.68, 1.9, 1.96, 1.96, 2.02, 2.09, 2.09, 2.09, 2.43, 2.43, 0.0, 0.0, 0.0, 0.0, 0.0, 0.0, 0.0, 0.0, 0.0, 0.0, -3.25, -2.54, -2.54, -2.45, -2.45, -2.37, -4.48, -3.82, -3.68, -3.68, -3.68, -3.53, -5.0, -5.0, -5.0, -4.8, -4.8, -5.95, -5.95, -5.7, -5.7, -6.42, -6.42, -6.95, -7.27, -6.95, -6.95, -6.95, -7.21, -7.21, -6.79, -6.45, -6.91, -6.55, -6.99, -6.8, -6.21, -6.21, -6.57, -6.94, -6.88, -7.37, -7.6, -6.8, -5.72, -5.37, -6.44, -8.0, -9.39, -9.39, -9.83, -9.83, -10.28, -9.2, -7.9, -6.44, -4.53, -1.7, -1.41, -0.0, 5.0, 4.37, 1.54, -0.0, -0.0, -0.0, -0.0, -0.0, -0.0, -0.0, 3.04, 3.04, 3.04, 3.04, 3.14, 3.14, 3.56, 3.68, 1.9, 1.9, 1.96, 1.96, 2.02, 2.02, 2.09, 2.02, 2.35, 2.43, 0.0, 0.0, 0.0, 0.0, 0.0, 0.0, 0.0, 0.0, 0.0, -2.72, -2.63, -2.54, -2.54, -2.45, -2.45, -4.48, -4.48, -4.48, -3.82, -3.68, -3.68, -5.0, -5.0, -5.0, -4.8, -4.8, -5.95, -5.95, -5.7, -5.7, -5.7, -7.27, -7.27, -6.95, -7.56, -6.95, -7.56, -7.21, -7.64, -7.64, -7.64, -7.28, -6.91, -6.91, -7.2, -7.12, -7.12, -6.4, -6.4, -7.12, -7.37, -6.88, -7.06, -7.37, -5.72, -5.06, -6.08, -7.89, -8.67, -9.11, -8.91, -9.54, -10.28, -10.52, -8.59, -6.44, -5.48, -3.5, -2.79, -4.18, 4.24, 4.6, 2.97, -0.0, -0.0, -0.0, 1.84, -0.0, -0.0, -0.0, 3.04, 3.04, 3.04, 3.04, 3.04, 3.56, 3.56, 3.56, 1.9, 1.9, 1.96, 1.96, 2.02, 2.02, 2.02, 2.02, 2.35, 2.35, 0.0, 0.0, 0.0, 0.0, 0.0, 0.0, 0.0, 0.0, -2.72, -2.63, -3.25, -2.54, -2.54, -2.45, -4.48, -4.48, -4.48, -4.48, -4.48, -3.68, -5.2, -5.2, -5.0, -5.0, -5.0, -5.95, -5.95, -5.95, -5.7, -5.7, -6.58, -7.27, -6.95, -7.56, -6.95, -6.95, -7.56, -7.64, -7.64, -7.28, -7.64, -7.28, -7.28, -7.2, -7.2, -7.53, -7.12, -7.12, -6.8, -7.12, -7.53, -6.99, -6.79, -8.05, -6.71, -5.37, -5.06, -6.44, -6.79, -7.81, -8.91, -9.54, -10.28, -9.96, -8.59, -7.68, -6.2, -4.43, -2.58, -1.01, -2.2, -0.0, 1.84, 1.54, 1.62, 1.54, -0.0, -0.0, -0.0, -0.0, 3.04, 3.04, 3.14, 3.14, 3.14, 3.56, 3.56, 1.83, 1.83, 1.9, 1.9, 1.96, 2.02, 2.02, 2.02, 2.02, 2.35, 2.35, 0.0, 0.0, 0.0, 0.0, 0.0, 0.0, 0.0, 0.0, -2.72, -2.63, -3.25, -3.14, -5.8, -4.65, -4.48, -4.48, -4.48, -4.32, -4.32, -5.98, -5.98, -5.0, -5.0, -5.0, -6.2, -5.95, -5.95, -5.95, -5.95, -6.58, -7.27, -7.27, -7.56, -7.56, -6.95, -6.95, -7.64, -7.64, -7.64, -7.28, -7.28, -7.28, -7.58, -7.2, -7.6, -7.53, -7.53, -7.12, -6.8, -7.2, -7.53, -6.99, -6.57, -6.0, -4.84, 0.0, -4.74, -6.32, -6.79, -7.81, -9.11, -9.83, -10.28, -10.18, -9.09, -7.95, -5.43, -4.53, -2.57, -0.82, -0.99, -2.06, -10.73, -0.0, 2.28, 2.17, -0.0, -0.0, -0.0, -0.0, 3.04, 3.04, 3.14, 3.14, 3.14, 3.56, 3.56, 1.83, 1.83, 1.9, 1.9, 1.96, 2.02, 2.02, 2.02, 2.02, 2.35, 2.35, 0.0, 0.0, 0.0, 0.0, 0.0, 0.0, 0.0, 0.0, -2.72, -2.63, -3.25, -3.14, -5.8, -4.65, -4.48, -4.48, -4.48, -4.32, -4.32, -5.98, -5.98, -5.0, -5.0, -5.0, -6.2, -5.95, -5.95, -5.95, -5.95, -6.58, -7.27, -7.27, -7.56, -7.56, -6.95, -6.95, -7.64, -7.64, -7.64, -7.28, -7.28, -7.28, -7.58, -7.2, -7.6, -7.53, -7.53, -7.12, -6.8, -7.2, -7.53, -6.99, -6.57, -6.0, -4.84, 0.0, -4.74, -6.32, -7.15, -7.81, -9.11, -9.83, -10.28, -10.18, -9.09, -7.65, -5.78, -4.51, -2.72, -1.72, 0.0, 0.0, 0.0, 0.0, 0.0, 0.0, 0.0, 0.0, 0.0, 0.0]}]